M I D A S
Marine Information and Data Acquisition System
Tripno 810 of the Zeeleeuw from 2004-11-22 08:19:51 to 2004-11-22 14:09:12
Back to CruiseResearch ActivitiesStationsMapUnderway DataData graphs

EquipmentUnitsComment
TimeDGPSUTC
LatitudeDGPSDM.mWGS84
LongitudeDGPSDM.mWGS84
TemperatureSBE03/SBE38deg celciusITS90
ConductivitySBE21S/mITS90
SalinitySBE21 Practical Salinity Units
ChlorophylAChelsea fluorimeterg/lCalibrated in Aceton
Missing or incorrect values are displayed as -999
Sea surface data collected by the RV Zeeleeuw from 2004-11-22 08:21:17 to 2004-11-22 14:15:54
                                                                                    Next 1000 lines
Time Latitude Longitude Temperature Conductivity Salinity ChlorophylA
2004-11-22 08:21:28 51°13.596 2°56.11 13.864356 0.065241 0.404376 -0.916087
2004-11-22 08:21:33 51°13.597 2°56.107 13.852966 0.065241 0.404376 -0.916087
2004-11-22 08:21:37 51°13.598 2°56.104 13.852966 0.065241 0.404376 -0.916087
2004-11-22 08:21:43 51°13.6 2°56.099 13.856029 0.065241 0.404376 -0.882377
2004-11-22 08:21:49 51°13.602 2°56.094 13.879333 0.065241 0.404376 -0.916087
2004-11-22 08:21:54 51°13.603 2°56.089 13.92979 0.065241 0.404376 -0.882377
2004-11-22 08:21:59 51°13.605 2°56.083 13.921518 0.065241 0.404376 -0.916087
2004-11-22 08:22:04 51°13.607 2°56.077 13.872108 0.065241 0.404361 -0.882377
2004-11-22 08:22:09 51°13.609 2°56.07 13.872108 0.065241 0.404361 -0.882377
2004-11-22 08:22:14 51°13.611 2°56.064 13.858183 0.065241 0.404361 -0.882377
2004-11-22 08:22:19 51°13.612 2°56.057 13.880386 0.065241 0.404353 -0.916087
2004-11-22 08:22:24 51°13.614 2°56.049 13.931176 0.065241 0.404353 -0.916087
2004-11-22 08:22:28 51°13.615 2°56.044 13.975241 0.065241 0.404346 -0.916087
2004-11-22 08:22:34 51°13.616 2°56.037 14.07946 0.065241 0.404346 -0.882377
2004-11-22 08:22:38 51°13.617 2°56.033 14.07946 0.065241 0.404346 -0.882377
2004-11-22 08:22:44 51°13.618 2°56.031 14.002325 0.065241 0.40433 -0.916087
2004-11-22 08:22:48 51°13.618 2°56.031 14.076311 0.065241 0.40453 -0.882377
2004-11-22 08:22:54 51°13.618 2°56.032 13.966067 0.065241 0.404777 -0.882377
2004-11-22 08:22:58 51°13.618 2°56.032 13.889475 0.065241 0.404862 -0.882377
2004-11-22 08:23:02 51°13.619 2°56.031 13.851147 0.065241 0.404769 -0.916087
2004-11-22 08:23:19 51°13.621 2°56.024 13.893206 0.065241 0.404184 -0.882377
2004-11-22 08:23:24 51°13.622 2°56.02 13.89885 0.065241 0.403816 -0.916087
2004-11-22 08:23:29 51°13.623 2°56.016 13.927399 0.065241 0.403747 -0.916087
2004-11-22 08:23:31 51°13.624 2°56.014 13.885839 0.065241 0.403885 -0.882377
2004-11-22 08:23:39 51°13.626 2°56.005 13.885839 0.065241 0.403885 -0.882377
2004-11-22 08:23:44 51°13.628 2°56 13.928738 0.065241 0.404115 -0.882377
2004-11-22 08:23:49 51°13.63 2°55.994 13.907555 0.065241 0.40433 -0.916087
2004-11-22 08:23:53 51°13.631 2°55.988 13.898468 0.065241 0.404476 -0.882377
2004-11-22 08:23:58 51°13.633 2°55.982 13.907938 0.065241 0.40453 -0.882377
2004-11-22 08:24:02 51°13.635 2°55.976 13.902438 0.065241 0.404492 -0.916087
2004-11-22 08:24:09 51°13.639 2°55.966 13.902438 0.065241 0.404492 -0.916087
2004-11-22 08:24:12 51°13.641 2°55.962 13.930793 0.065241 0.404422 -0.882377
2004-11-22 08:24:19 51°13.645 2°55.951 13.904733 0.065241 0.404307 -0.882377
2004-11-22 08:24:24 51°13.648 2°55.943 13.936721 0.065241 0.40423 -0.916087
2004-11-22 08:24:30 51°13.651 2°55.934 13.957131 0.065241 0.404184 -0.916087
2004-11-22 08:24:34 51°13.653 2°55.927 13.934188 0.065241 0.404192 -0.882377
2004-11-22 08:24:39 51°13.656 2°55.919 13.934188 0.065241 0.404192 -0.882377
2004-11-22 08:24:44 51°13.659 2°55.91 13.926395 0.065241 0.40423 -0.916087
2004-11-22 08:24:52 51°13.663 2°55.895 13.936913 0.065241 0.404338 -0.882377
2004-11-22 08:25:02 51°13.667 2°55.875 13.950249 0.065241 0.404353 -0.882377
2004-11-22 08:25:08 51°13.669 2°55.862 13.939303 0.065241 0.404346 -0.916087
2004-11-22 08:25:12 51°13.67 2°55.854 13.95216 0.065241 0.404315 -0.882377
2004-11-22 08:25:16 51°13.671 2°55.845 13.954311 0.065241 0.404276 -0.882377
2004-11-22 08:25:20 51°13.671 2°55.836 13.987709 0.065241 0.404253 -0.882377
2004-11-22 08:25:32 51°13.673 2°55.809 14.019468 0.065241 0.404215 -0.916087
2004-11-22 08:25:40 51°13.674 2°55.792 13.960858 0.065241 0.404223 -0.882377
2004-11-22 08:25:46 51°13.675 2°55.782 13.95326 0.065241 0.404215 -0.916087
2004-11-22 08:25:51 51°13.675 2°55.776 14.021617 0.065241 0.404238 -0.882377
2004-11-22 08:25:56 51°13.675 2°55.771 14.021617 0.065241 0.404238 -0.882377
2004-11-22 08:26:02 51°13.676 2°55.767 13.990766 0.065241 0.404238 -0.916087
2004-11-22 08:26:06 51°13.677 2°55.766 14.143927 0.065241 0.404246 -0.882377
2004-11-22 08:26:12 51°13.678 2°55.767 14.162894 0.065241 0.40423 -0.916087
2004-11-22 08:26:17 51°13.68 2°55.769 14.243372 0.065241 0.40423 -0.882377
2004-11-22 08:26:19 51°13.681 2°55.77 14.065147 0.065241 0.404253 -0.882377
2004-11-22 08:26:27 51°13.684 2°55.772 14.065147 0.065241 0.404253 -0.882377
2004-11-22 08:26:39 51°13.685 2°55.772 13.964538 0.065241 0.404253 -0.882377
2004-11-22 08:26:44 51°13.684 2°55.77 13.997788 0.065241 0.404261 -0.916087
2004-11-22 08:26:49 51°13.682 2°55.768 13.987948 0.065241 0.404246 -0.882377
2004-11-22 08:26:51 51°13.682 2°55.767 13.986754 0.065241 0.404238 -0.916087
2004-11-22 08:26:58 51°13.679 2°55.764 13.973855 0.065241 0.404223 -0.882377
2004-11-22 08:27:02 51°13.678 2°55.762 14.076025 0.065241 0.404199 -0.882377
2004-11-22 08:27:11 51°13.676 2°55.76 14.016985 0.065241 0.404176 -0.882377
2004-11-22 08:27:18 51°13.678 2°55.758 14.191524 0.065241 0.404176 -0.882377
2004-11-22 08:27:22 51°13.68 2°55.758 14.211002 0.065241 0.404176 -0.882377
2004-11-22 08:27:30 51°13.685 2°55.756 14.233853 0.065241 0.404192 -0.882377
2004-11-22 08:27:34 51°13.688 2°55.754 14.24599 0.065241 0.404207 -0.882377
2004-11-22 08:27:40 51°13.694 2°55.751 14.24599 0.065241 0.404207 -0.882377
2004-11-22 08:27:44 51°13.698 2°55.747 14.219715 0.065241 0.404223 -0.882377
2004-11-22 08:27:49 51°13.703 2°55.743 14.085661 0.065241 0.40423 -0.916087
2004-11-22 08:27:52 51°13.707 2°55.74 13.994492 0.065241 0.404215 -0.882377
2004-11-22 08:27:58 51°13.714 2°55.734 14.010969 0.065241 0.404192 -0.882377
2004-11-22 08:28:04 51°13.722 2°55.727 13.988235 0.065241 0.404176 -0.916087
2004-11-22 08:28:08 51°13.728 2°55.723 13.988235 0.065241 0.404176 -0.916087
2004-11-22 08:28:14 51°13.738 2°55.715 13.971514 0.065241 0.404146 -0.882377
2004-11-22 08:28:17 51°13.743 2°55.711 13.950583 0.065241 0.404146 -0.882377
2004-11-22 08:28:24 51°13.754 2°55.701 13.96793 0.065241 0.404138 -0.916087
2004-11-22 08:28:28 51°13.761 2°55.695 13.960954 0.065241 0.404146 -0.882377
2004-11-22 08:28:32 51°13.768 2°55.688 13.99048 0.065241 0.404161 -0.882377
2004-11-22 08:28:36 51°13.775 2°55.682 13.99048 0.065241 0.404161 -0.882377
2004-11-22 08:28:44 51°13.79 2°55.668 13.936339 0.065241 0.404169 -0.882377
2004-11-22 08:28:47 51°13.795 2°55.663 13.884978 0.065241 0.404176 -0.882377
2004-11-22 08:28:54 51°13.809 2°55.652 13.930937 0.065241 0.404176 -0.882377
2004-11-22 08:28:58 51°13.818 2°55.645 13.918601 0.065241 0.404176 -0.882377
2004-11-22 08:29:04 51°13.83 2°55.635 13.937199 0.065241 0.404176 -0.916087
2004-11-22 08:29:08 51°13.838 2°55.628 13.937199 0.065241 0.404176 -0.916087
2004-11-22 08:29:12 51°13.846 2°55.621 13.912337 0.065241 0.404169 -0.916087
2004-11-22 08:29:18 51°13.858 2°55.611 13.897272 0.065241 0.404169 -0.882377
2004-11-22 08:29:24 51°13.871 2°55.601 13.946425 0.065241 0.404176 -0.882377
2004-11-22 08:29:28 51°13.879 2°55.594 13.874501 0.065241 0.404161 -0.916087
2004-11-22 08:29:34 51°13.893 2°55.585 13.95259 0.065241 0.404153 -0.916087
2004-11-22 08:29:38 51°13.902 2°55.579 13.95259 0.065241 0.404153 -0.916087
2004-11-22 08:29:44 51°13.915 2°55.57 13.948528 0.065241 0.404153 -0.882377
2004-11-22 08:29:49 51°13.927 2°55.562 13.977868 0.065241 0.404146 -0.916087
2004-11-22 08:29:54 51°13.938 2°55.554 13.959663 0.065241 0.404138 -0.916087
2004-11-22 08:29:57 51°13.945 2°55.55 13.959377 0.065241 0.40413 -0.882377
2004-11-22 08:30:02 51°13.956 2°55.542 13.961336 0.065241 0.40413 -0.882377
2004-11-22 08:30:12 51°13.979 2°55.526 13.995734 0.065241 0.40413 -0.882377
2004-11-22 08:30:20 51°13.997 2°55.513 13.966449 0.065241 0.404138 -0.882377
2004-11-22 08:30:25 51°14.008 2°55.505 13.96707 0.065241 0.404146 -0.882377
2004-11-22 08:30:28 51°14.015 2°55.5 13.935431 0.065241 0.40413 -0.882377
2004-11-22 08:30:40 51°14.042 2°55.48 13.903777 0.065241 0.40413 -0.882377
2004-11-22 08:30:44 51°14.051 2°55.473 13.903777 0.065241 0.40413 -0.882377
2004-11-22 08:30:58 51°14.082 2°55.449 13.996355 0.065241 0.404107 -0.916087
2004-11-22 08:31:04 51°14.096 2°55.438 14.005668 0.065241 0.404107 -0.882377
2004-11-22 08:31:07 51°14.103 2°55.432 14.005668 0.065241 0.404107 -0.882377
2004-11-22 08:31:12 51°14.115 2°55.422 14.011828 0.065241 0.4041 -0.916087
2004-11-22 08:31:26 51°14.149 2°55.393 13.978967 0.065241 0.404092 -0.882377
2004-11-22 08:31:32 51°14.164 2°55.38 13.935335 0.065241 0.404084 -0.916087
2004-11-22 08:31:37 51°14.176 2°55.368 13.961766 0.065241 0.404092 -0.882377
2004-11-22 08:31:42 51°14.187 2°55.357 14.075357 0.065241 0.404092 -0.916087
2004-11-22 08:31:46 51°14.197 2°55.347 14.085804 0.065241 0.404092 -0.882377
2004-11-22 08:31:51 51°14.208 2°55.333 13.978776 0.065241 0.404084 -0.916087
2004-11-22 08:31:56 51°14.219 2°55.32 13.978776 0.065241 0.404084 -0.916087
2004-11-22 08:32:01 51°14.23 2°55.306 13.974906 0.065241 0.404084 -0.882377
2004-11-22 08:32:07 51°14.243 2°55.288 14.045819 0.065241 0.404077 -0.916087
2004-11-22 08:32:23 51°14.277 2°55.239 14.057369 0.065241 0.404046 -0.882377
2004-11-22 08:32:26 51°14.283 2°55.229 14.104739 0.065345 0.404728 -0.916087
2004-11-22 08:32:33 51°14.296 2°55.206 14.104739 0.065345 0.404728 -0.916087
2004-11-22 08:32:38 51°14.306 2°55.189 13.981069 0.065345 0.40472 -0.882377
2004-11-22 08:32:41 51°14.312 2°55.179 14.143403 0.065241 0.404061 -0.882377
2004-11-22 08:32:47 51°14.322 2°55.158 13.899807 0.065241 0.404046 -0.916087
2004-11-22 08:32:52 51°14.332 2°55.141 13.929072 0.065241 0.404038 -0.882377
2004-11-22 08:32:57 51°14.34 2°55.124 14.08132 0.065241 0.40403 -0.916087
2004-11-22 08:33:02 51°14.349 2°55.107 14.08132 0.065241 0.40403 -0.916087
2004-11-22 08:33:05 51°14.355 2°55.097 14.06863 0.065241 0.404046 -0.916087
2004-11-22 08:33:12 51°14.368 2°55.072 13.988617 0.065345 0.40472 -0.882377
2004-11-22 08:33:18 51°14.379 2°55.051 13.967787 0.065345 0.404713 -0.882377
2004-11-22 08:33:20 51°14.383 2°55.045 13.914776 0.065345 0.404697 -0.882377
2004-11-22 08:33:28 51°14.401 2°55.02 14.029065 0.065241 0.40403 -0.916087
2004-11-22 08:33:32 51°14.409 2°55.007 14.029065 0.065241 0.40403 -0.916087
2004-11-22 08:33:38 51°14.422 2°54.988 13.894019 0.065345 0.404682 -0.882377
2004-11-22 08:33:42 51°14.43 2°54.975 14.06863 0.065241 0.404046 -0.916087
2004-11-22 08:33:48 51°14.44 2°54.953 13.995829 0.065345 0.40472 -0.882377
2004-11-22 08:33:59 51°14.455 2°54.912 13.921948 0.065345 0.404713 -0.882377
2004-11-22 08:34:03 51°14.46 2°54.897 13.954072 0.065345 0.404713 -0.916087
2004-11-22 08:34:09 51°14.466 2°54.873 13.954072 0.065345 0.404713 -0.916087
2004-11-22 08:34:14 51°14.468 2°54.854 13.944513 0.065241 0.40403 -0.916087
2004-11-22 08:34:18 51°14.47 2°54.838 14.068868 0.065241 0.404038 -0.882377
2004-11-22 08:34:24 51°14.471 2°54.814 13.905164 0.065345 0.404667 -0.882377
2004-11-22 08:34:29 51°14.471 2°54.794 13.840521 0.065345 0.404659 -0.916087
2004-11-22 08:34:34 51°14.471 2°54.773 13.887227 0.065345 0.404659 -0.882377
2004-11-22 08:34:38 51°14.471 2°54.757 13.887227 0.065345 0.404659 -0.882377
2004-11-22 08:34:44 51°14.469 2°54.733 13.965589 0.065241 0.403961 -0.882377
2004-11-22 08:34:48 51°14.468 2°54.717 13.821418 0.065241 0.403977 -0.916087
2004-11-22 08:34:54 51°14.466 2°54.692 13.941884 0.065345 0.404651 -0.916087
2004-11-22 08:34:58 51°14.465 2°54.675 13.84033 0.065345 0.404628 -0.882377
2004-11-22 08:35:03 51°14.463 2°54.655 13.920323 0.065345 0.404636 -0.882377
2004-11-22 08:35:08 51°14.462 2°54.633 13.920323 0.065345 0.404636 -0.882377
2004-11-22 08:35:14 51°14.459 2°54.608 13.8241 0.065345 0.404636 -0.882377
2004-11-22 08:35:18 51°14.458 2°54.591 13.829366 0.065345 0.404628 -0.882377
2004-11-22 08:35:22 51°14.456 2°54.573 13.895072 0.065345 0.404597 -0.882377
2004-11-22 08:35:28 51°14.452 2°54.548 13.918506 0.065345 0.404636 -0.848668
2004-11-22 08:35:34 51°14.447 2°54.523 13.827834 0.065345 0.40462 -0.882377
2004-11-22 08:35:39 51°14.442 2°54.502 13.827834 0.065345 0.40462 -0.882377
2004-11-22 08:35:44 51°14.436 2°54.482 13.953737 0.065345 0.404628 -0.882377
2004-11-22 08:35:47 51°14.432 2°54.469 13.831952 0.065345 0.40462 -0.916087
2004-11-22 08:35:52 51°14.426 2°54.449 13.84033 0.065345 0.404613 -0.916087
2004-11-22 08:35:58 51°14.417 2°54.424 13.862059 0.065345 0.404605 -0.882377
2004-11-22 08:36:04 51°14.409 2°54.4 13.832526 0.065345 0.40459 -0.882377
2004-11-22 08:36:08 51°14.403 2°54.384 13.832526 0.065345 0.40459 -0.882377
2004-11-22 08:36:14 51°14.394 2°54.359 13.815432 0.065345 0.40459 -0.882377
2004-11-22 08:36:17 51°14.39 2°54.347 13.878424 0.065241 0.403923 -0.916087
2004-11-22 08:36:21 51°14.385 2°54.331 13.813421 0.065345 0.40459 -0.882377
2004-11-22 08:36:29 51°14.373 2°54.298 13.805232 0.065345 0.404582 -0.916087
2004-11-22 08:36:32 51°14.368 2°54.286 13.825919 0.065345 0.404582 -0.882377
2004-11-22 08:36:39 51°14.358 2°54.256 13.825919 0.065345 0.404582 -0.882377
2004-11-22 08:36:42 51°14.353 2°54.243 13.875888 0.065345 0.404574 -0.882377
2004-11-22 08:36:48 51°14.345 2°54.217 13.861677 0.065345 0.404582 -0.882377
2004-11-22 08:36:54 51°14.336 2°54.191 13.80777 0.065345 0.404567 -0.916087
2004-11-22 08:37:06 51°14.317 2°54.138 13.870386 0.065345 0.404559 -0.882377
2004-11-22 08:37:10 51°14.311 2°54.121 13.88383 0.065345 0.404559 -0.882377
2004-11-22 08:37:13 51°14.306 2°54.107 13.831712 0.065345 0.404551 -0.882377
2004-11-22 08:37:24 51°14.289 2°54.058 13.850142 0.065345 0.404544 -0.916087
2004-11-22 08:37:26 51°14.286 2°54.049 13.825153 0.065345 0.404544 -0.882377
2004-11-22 08:37:38 51°14.268 2°53.995 13.898707 0.065345 0.404551 -0.916087
2004-11-22 08:37:40 51°14.265 2°53.986 13.845452 0.065345 0.404551 -0.882377
2004-11-22 08:37:55 51°14.242 2°53.918 13.823286 0.065345 0.404536 -0.882377
2004-11-22 08:38:00 51°14.235 2°53.896 13.842244 0.065345 0.404544 -0.916087
2004-11-22 08:38:04 51°14.229 2°53.877 13.865361 0.065345 0.404536 -0.882377
2004-11-22 08:38:08 51°14.223 2°53.859 13.879477 0.065345 0.404544 -0.916087
2004-11-22 08:38:14 51°14.213 2°53.832 13.879477 0.065345 0.404544 -0.916087
2004-11-22 08:38:24 51°14.198 2°53.788 13.810212 0.065345 0.404536 -0.882377
2004-11-22 08:38:34 51°14.183 2°53.744 13.824052 0.065345 0.404521 -0.916087
2004-11-22 08:38:38 51°14.177 2°53.726 13.824052 0.065345 0.404521 -0.916087
2004-11-22 08:38:44 51°14.168 2°53.699 13.815145 0.065345 0.404528 -0.916087
2004-11-22 08:38:49 51°14.16 2°53.677 13.874405 0.065345 0.404521 -0.882377
2004-11-22 08:38:54 51°14.153 2°53.654 13.833579 0.065345 0.404528 -0.916087
2004-11-22 08:39:06 51°14.135 2°53.601 13.8365 0.065345 0.404521 -0.882377
2004-11-22 08:39:11 51°14.128 2°53.578 13.838415 0.065345 0.404513 -0.882377
2004-11-22 08:39:16 51°14.121 2°53.556 13.84526 0.065345 0.404482 -0.882377
2004-11-22 08:39:20 51°14.115 2°53.538 13.84526 0.065345 0.404482 -0.882377
2004-11-22 08:39:26 51°14.106 2°53.51 13.850669 0.065345 0.404505 -0.916087
2004-11-22 08:39:30 51°14.1 2°53.492 13.832095 0.065345 0.404498 -0.882377
2004-11-22 08:39:36 51°14.091 2°53.465 13.841766 0.065345 0.404498 -0.916087
2004-11-22 08:39:40 51°14.085 2°53.446 13.865313 0.065345 0.40449 -0.882377
2004-11-22 08:39:43 51°14.08 2°53.433 13.849089 0.065345 0.404505 -0.882377
2004-11-22 08:39:55 51°14.062 2°53.378 13.819742 0.065345 0.404513 -0.882377
2004-11-22 08:40:00 51°14.055 2°53.355 13.877419 0.065345 0.404498 -0.882377
2004-11-22 08:40:02 51°14.052 2°53.346 13.858231 0.065345 0.404505 -0.882377
2004-11-22 08:40:14 51°14.034 2°53.29 13.837409 0.065345 0.40449 -0.882377
2004-11-22 08:40:20 51°14.025 2°53.263 13.845787 0.065345 0.40449 -0.916087
2004-11-22 08:40:25 51°14.018 2°53.24 13.833244 0.065345 0.40449 -0.882377
2004-11-22 08:40:42 51°13.993 2°53.163 13.860767 0.065345 0.404467 -0.916087
2004-11-22 08:40:48 51°13.984 2°53.136 13.8207 0.065345 0.404474 -0.916087
2004-11-22 08:40:52 51°13.979 2°53.118 13.851339 0.065345 0.404474 -0.882377
2004-11-22 08:40:58 51°13.97 2°53.091 13.835542 0.065345 0.404482 -0.882377
2004-11-22 08:41:02 51°13.965 2°53.073 13.835542 0.065345 0.404482 -0.882377
2004-11-22 08:41:08 51°13.956 2°53.046 13.893876 0.065345 0.404474 -0.882377
2004-11-22 08:41:13 51°13.949 2°53.024 13.831186 0.065345 0.404467 -0.882377
2004-11-22 08:41:17 51°13.943 2°53.006 13.869668 0.065345 0.404459 -0.882377
2004-11-22 08:41:22 51°13.936 2°52.984 13.890049 0.065345 0.404467 -0.916087
2004-11-22 08:41:28 51°13.927 2°52.957 13.837744 0.065345 0.404467 -0.882377
2004-11-22 08:41:33 51°13.92 2°52.935 13.837744 0.065345 0.404467 -0.882377
2004-11-22 08:41:40 51°13.911 2°52.904 13.856221 0.065345 0.404459 -0.882377
2004-11-22 08:41:52 51°13.894 2°52.85 13.840569 0.065345 0.404459 -0.882377
2004-11-22 08:42:08 51°13.871 2°52.78 13.862586 0.065345 0.404459 -0.916087
2004-11-22 08:42:13 51°13.863 2°52.758 13.848611 0.065345 0.404451 -0.916087
2004-11-22 08:42:22 51°13.851 2°52.718 13.872922 0.065345 0.404451 -0.916087
2004-11-22 08:42:28 51°13.843 2°52.692 13.862873 0.065345 0.404451 -0.916087
2004-11-22 08:42:33 51°13.836 2°52.67 13.862873 0.065345 0.404451 -0.916087
2004-11-22 08:42:37 51°13.83 2°52.652 13.872252 0.065345 0.404428 -0.882377
2004-11-22 08:42:42 51°13.823 2°52.63 13.882299 0.065345 0.404451 -0.916087
2004-11-22 08:42:48 51°13.815 2°52.604 13.844686 0.065345 0.404436 -0.916087
2004-11-22 08:42:52 51°13.809 2°52.586 13.890815 0.065345 0.404451 -0.916087
2004-11-22 08:42:58 51°13.801 2°52.559 13.872108 0.065345 0.404444 -0.882377
2004-11-22 08:43:01 51°13.797 2°52.546 13.872108 0.065345 0.404444 -0.882377
2004-11-22 08:43:08 51°13.786 2°52.515 13.879572 0.065345 0.404444 -0.916087
2004-11-22 08:43:13 51°13.779 2°52.493 13.890384 0.065345 0.404444 -0.916087
2004-11-22 08:43:18 51°13.772 2°52.471 13.885361 0.065345 0.404444 -0.882377
2004-11-22 08:43:23 51°13.764 2°52.449 13.878376 0.065345 0.404444 -0.882377
2004-11-22 08:43:28 51°13.757 2°52.427 13.891915 0.065345 0.404428 -0.882377
2004-11-22 08:43:33 51°13.75 2°52.405 13.891915 0.065345 0.404428 -0.882377
2004-11-22 08:43:36 51°13.746 2°52.392 13.865457 0.065345 0.404444 -0.916087
2004-11-22 08:43:42 51°13.737 2°52.365 13.864643 0.065345 0.404436 -0.882377
2004-11-22 08:43:48 51°13.729 2°52.338 13.879046 0.065345 0.404444 -0.916087
2004-11-22 08:43:51 51°13.725 2°52.325 13.888375 0.065345 0.404444 -0.882377
2004-11-22 08:44:02 51°13.709 2°52.276 13.892537 0.065345 0.404421 -0.916087
2004-11-22 08:44:08 51°13.7 2°52.249 13.87541 0.065345 0.404421 -0.882377
2004-11-22 08:44:11 51°13.696 2°52.235 13.881295 0.065345 0.404421 -0.882377
2004-11-22 08:44:18 51°13.686 2°52.204 13.865601 0.065345 0.404436 -0.882377
2004-11-22 08:44:23 51°13.679 2°52.181 13.87651 0.065345 0.404421 -0.882377
2004-11-22 08:44:28 51°13.672 2°52.158 13.886174 0.065345 0.404436 -0.882377
2004-11-22 08:44:32 51°13.667 2°52.14 13.886174 0.065345 0.404436 -0.882377
2004-11-22 08:44:37 51°13.66 2°52.117 13.877706 0.065345 0.404421 -0.882377
2004-11-22 08:44:42 51°13.653 2°52.094 13.873592 0.065345 0.404421 -0.882377
2004-11-22 08:44:48 51°13.644 2°52.067 13.877036 0.065345 0.404421 -0.882377
2004-11-22 08:44:49 51°13.643 2°52.063 13.885839 0.065345 0.404428 -0.882377
2004-11-22 08:45:03 51°13.623 2°52 13.905785 0.065345 0.404428 -0.916087
2004-11-22 08:45:15 51°13.605 2°51.946 13.902294 0.065345 0.404405 -0.882377
2004-11-22 08:45:29 51°13.585 2°51.882 13.906072 0.065345 0.404413 -0.916087
2004-11-22 08:45:34 51°13.577 2°51.859 13.887083 0.065345 0.404421 -0.916087
2004-11-22 08:45:39 51°13.57 2°51.837 13.919701 0.065345 0.404413 -0.882377
2004-11-22 08:45:45 51°13.561 2°51.811 13.919701 0.065345 0.404413 -0.882377
2004-11-22 08:45:48 51°13.557 2°51.798 13.873017 0.065345 0.404405 -0.882377
2004-11-22 08:45:54 51°13.548 2°51.771 13.901864 0.065345 0.404405 -0.916087
2004-11-22 08:46:00 51°13.539 2°51.744 13.900811 0.065345 0.404428 -0.882377
2004-11-22 08:46:03 51°13.535 2°51.731 13.910903 0.065345 0.404398 -0.882377
2004-11-22 08:46:18 51°13.514 2°51.663 13.898994 0.065345 0.404398 -0.882377
2004-11-22 08:46:23 51°13.506 2°51.641 13.916641 0.065345 0.404398 -0.916087
2004-11-22 08:46:38 51°13.484 2°51.572 13.903872 0.065345 0.404413 -0.916087
2004-11-22 08:46:42 51°13.478 2°51.554 13.921662 0.065345 0.404398 -0.882377
2004-11-22 08:46:48 51°13.469 2°51.527 13.901624 0.065345 0.404405 -0.882377
2004-11-22 08:46:51 51°13.464 2°51.514 13.913389 0.065345 0.404398 -0.882377
2004-11-22 08:46:58 51°13.454 2°51.482 13.908177 0.065345 0.40439 -0.882377
2004-11-22 08:47:02 51°13.448 2°51.463 13.908177 0.065345 0.40439 -0.882377
2004-11-22 08:47:08 51°13.439 2°51.435 13.901098 0.065345 0.404398 -0.882377
2004-11-22 08:47:10 51°13.437 2°51.426 13.933518 0.065345 0.404398 -0.916087
2004-11-22 08:47:16 51°13.428 2°51.399 13.915828 0.065345 0.404405 -0.882377
2004-11-22 08:47:20 51°13.422 2°51.381 13.919653 0.065345 0.40439 -0.916087
2004-11-22 08:47:28 51°13.41 2°51.345 13.904877 0.065345 0.404398 -0.882377
2004-11-22 08:47:32 51°13.404 2°51.327 13.904877 0.065345 0.404398 -0.882377
2004-11-22 08:47:37 51°13.397 2°51.304 13.917932 0.065345 0.404375 -0.882377
2004-11-22 08:47:42 51°13.39 2°51.282 13.913437 0.065345 0.404405 -0.916087
2004-11-22 08:47:48 51°13.381 2°51.255 13.921518 0.065345 0.404367 -0.916087
2004-11-22 08:47:53 51°13.373 2°51.232 13.919653 0.065345 0.404405 -0.882377
2004-11-22 08:48:07 51°13.353 2°51.168 13.907172 0.065345 0.404375 -0.882377
2004-11-22 08:48:12 51°13.345 2°51.145 13.911429 0.065345 0.404382 -0.882377
2004-11-22 08:48:16 51°13.339 2°51.127 13.918601 0.065345 0.404382 -0.848668
2004-11-22 08:48:22 51°13.331 2°51.099 13.914489 0.065345 0.404375 -0.882377
2004-11-22 08:48:27 51°13.323 2°51.076 13.914489 0.065345 0.404375 -0.882377
2004-11-22 08:48:41 51°13.303 2°51.012 13.916211 0.065345 0.404359 -0.882377
2004-11-22 08:48:48 51°13.293 2°50.981 13.934475 0.065345 0.40439 -0.882377
2004-11-22 08:48:52 51°13.288 2°50.963 13.94002 0.065345 0.404398 -0.882377
2004-11-22 08:48:55 51°13.283 2°50.949 13.93261 0.065345 0.404375 -0.916087
2004-11-22 08:49:06 51°13.266 2°50.9 13.929694 0.065345 0.404382 -0.882377
2004-11-22 08:49:12 51°13.257 2°50.874 13.928929 0.065345 0.40439 -0.882377
2004-11-22 08:49:17 51°13.249 2°50.852 13.932562 0.065345 0.404367 -0.882377
2004-11-22 08:49:22 51°13.241 2°50.83 13.956318 0.065345 0.404367 -0.882377
2004-11-22 08:49:26 51°13.234 2°50.813 13.956318 0.065345 0.404367 -0.882377
2004-11-22 08:49:32 51°13.224 2°50.787 13.924913 0.065345 0.404367 -0.882377
2004-11-22 08:49:34 51°13.22 2°50.778 13.932228 0.065345 0.404359 -0.882377
2004-11-22 08:49:44 51°13.204 2°50.734 13.939016 0.065345 0.404367 -0.882377
2004-11-22 08:49:50 51°13.194 2°50.707 13.939016 0.065345 0.404367 -0.882377
2004-11-22 08:49:56 51°13.184 2°50.681 13.935957 0.065345 0.404359 -0.916087
2004-11-22 08:49:58 51°13.18 2°50.672 13.939972 0.065345 0.404375 -0.882377
2004-11-22 08:50:06 51°13.167 2°50.637 13.950201 0.065345 0.404352 -0.916087
2004-11-22 08:50:11 51°13.159 2°50.615 13.940593 0.065345 0.404367 -0.882377
2004-11-22 08:50:16 51°13.151 2°50.592 13.955076 0.065345 0.404359 -0.916087
2004-11-22 08:50:20 51°13.144 2°50.574 13.955076 0.065345 0.404359 -0.916087
2004-11-22 08:50:26 51°13.134 2°50.549 13.962196 0.065345 0.404352 -0.916087
2004-11-22 08:50:31 51°13.126 2°50.526 13.948193 0.065345 0.404367 -0.882377
2004-11-22 08:50:36 51°13.118 2°50.504 13.951921 0.065345 0.404359 -0.916087
2004-11-22 08:50:51 51°13.092 2°50.439 13.947524 0.065345 0.404352 -0.916087
2004-11-22 08:51:00 51°13.077 2°50.4 13.943127 0.065345 0.404344 -0.882377
2004-11-22 08:51:05 51°13.068 2°50.378 13.958469 0.065345 0.404352 -0.916087
2004-11-22 08:51:10 51°13.06 2°50.356 13.966688 0.065345 0.404352 -0.882377
2004-11-22 08:51:14 51°13.053 2°50.339 13.966688 0.065345 0.404352 -0.882377
2004-11-22 08:51:24 51°13.037 2°50.295 13.974142 0.065345 0.404352 -0.882377
2004-11-22 08:51:30 51°13.028 2°50.268 13.972183 0.065345 0.404336 -0.916087
2004-11-22 08:51:36 51°13.017 2°50.241 13.965493 0.065345 0.404344 -0.882377
2004-11-22 08:51:41 51°13.01 2°50.219 13.964155 0.065345 0.404336 -0.916087
2004-11-22 08:51:46 51°13.001 2°50.197 13.964203 0.065345 0.404329 -0.882377
2004-11-22 08:51:48 51°12.998 2°50.188 13.964203 0.065345 0.404329 -0.882377
2004-11-22 08:51:54 51°12.988 2°50.161 13.974667 0.065345 0.404352 -0.882377
2004-11-22 08:52:15 51°12.953 2°50.068 13.975049 0.065345 0.404344 -0.882377
2004-11-22 08:52:18 51°12.948 2°50.055 13.964729 0.065345 0.404344 -0.882377
2004-11-22 08:52:25 51°12.937 2°50.023 13.96879 0.065345 0.404329 -0.882377
2004-11-22 08:52:30 51°12.929 2°50.001 13.971227 0.065345 0.404352 -0.916087
2004-11-22 08:52:32 51°12.926 2°49.992 13.967452 0.065345 0.404336 -0.882377
2004-11-22 08:52:38 51°12.916 2°49.965 13.971514 0.065345 0.404329 -0.916087
2004-11-22 08:52:45 51°12.905 2°49.935 13.971514 0.065345 0.404329 -0.916087
2004-11-22 08:52:50 51°12.896 2°49.913 13.975909 0.065345 0.404336 -0.916087
2004-11-22 08:52:54 51°12.89 2°49.895 13.970319 0.065345 0.404336 -0.916087
2004-11-22 08:53:00 51°12.879 2°49.869 13.989954 0.065345 0.404329 -0.882377
2004-11-22 08:53:04 51°12.873 2°49.851 13.982932 0.065345 0.404321 -0.882377
2004-11-22 08:53:10 51°12.863 2°49.824 13.980305 0.065345 0.404321 -0.882377
2004-11-22 08:53:14 51°12.856 2°49.807 13.980305 0.065345 0.404321 -0.882377
2004-11-22 08:53:20 51°12.846 2°49.78 13.975241 0.065345 0.404321 -0.916087
2004-11-22 08:53:25 51°12.837 2°49.758 13.995973 0.065345 0.404329 -0.882377
2004-11-22 08:53:30 51°12.829 2°49.736 13.98384 0.065345 0.404321 -0.916087
2004-11-22 08:53:35 51°12.821 2°49.713 13.983601 0.065345 0.404336 -0.882377
2004-11-22 08:53:40 51°12.812 2°49.691 13.994492 0.065345 0.404344 -0.916087
2004-11-22 08:53:44 51°12.806 2°49.673 13.994492 0.065345 0.404344 -0.916087
2004-11-22 08:53:48 51°12.799 2°49.655 13.98747 0.065345 0.404321 -0.882377
2004-11-22 08:53:54 51°12.789 2°49.629 13.98556 0.065345 0.404321 -0.882377
2004-11-22 08:54:06 51°12.769 2°49.576 13.99368 0.065345 0.404306 -0.882377
2004-11-22 08:54:11 51°12.76 2°49.554 13.989954 0.065345 0.404306 -0.882377
2004-11-22 08:54:16 51°12.752 2°49.533 13.997836 0.065345 0.404336 -0.916087
2004-11-22 08:54:20 51°12.745 2°49.515 13.997836 0.065345 0.404336 -0.916087
2004-11-22 08:54:24 51°12.739 2°49.497 13.998695 0.065345 0.404321 -0.916087
2004-11-22 08:54:30 51°12.729 2°49.471 13.996498 0.065345 0.404329 -0.882377
2004-11-22 08:54:36 51°12.719 2°49.444 14.005763 0.065345 0.404313 -0.882377
2004-11-22 08:54:40 51°12.713 2°49.426 13.997692 0.065345 0.404313 -0.916087
2004-11-22 08:54:45 51°12.705 2°49.404 14.00648 0.065345 0.404329 -0.882377
2004-11-22 08:54:50 51°12.696 2°49.383 14.00648 0.065345 0.404329 -0.882377
2004-11-22 08:54:56 51°12.686 2°49.356 13.999268 0.065345 0.404313 -0.882377
2004-11-22 08:55:01 51°12.678 2°49.334 14.010969 0.065345 0.404329 -0.882377
2004-11-22 08:55:05 51°12.672 2°49.316 14.004761 0.065345 0.404321 -0.848668
2004-11-22 08:55:16 51°12.653 2°49.267 14.019038 0.065345 0.404313 -0.882377
2004-11-22 08:55:21 51°12.645 2°49.244 14.019038 0.065345 0.404313 -0.882377
2004-11-22 08:55:26 51°12.637 2°49.222 14.004092 0.065345 0.404321 -0.882377
2004-11-22 08:55:30 51°12.63 2°49.204 14.018465 0.065345 0.404329 -0.882377
2004-11-22 08:55:36 51°12.62 2°49.178 14.023717 0.065345 0.404313 -0.916087
2004-11-22 08:55:41 51°12.611 2°49.155 14.011542 0.065345 0.404306 -0.882377
2004-11-22 08:55:53 51°12.592 2°49.101 14.02281 0.065345 0.404306 -0.882377
2004-11-22 08:56:02 51°12.577 2°49.061 14.021282 0.065345 0.404321 -0.916087
2004-11-22 08:56:08 51°12.567 2°49.035 14.0262 0.065345 0.404298 -0.882377
2004-11-22 08:56:20 51°12.547 2°48.981 14.029733 0.065345 0.404313 -0.882377
2004-11-22 08:56:25 51°12.539 2°48.958 14.025341 0.065345 0.404313 -0.916087
2004-11-22 08:56:30 51°12.531 2°48.936 14.033647 0.065345 0.40429 -0.882377
2004-11-22 08:56:34 51°12.524 2°48.918 14.028683 0.065345 0.40429 -0.882377
2004-11-22 08:56:38 51°12.517 2°48.9 14.033504 0.065345 0.404313 -0.882377
2004-11-22 08:56:53 51°12.492 2°48.834 14.029494 0.065345 0.404306 -0.882377
2004-11-22 08:57:02 51°12.477 2°48.793 14.035652 0.065345 0.404306 -0.848668
2004-11-22 08:57:08 51°12.467 2°48.766 14.029876 0.065345 0.404298 -0.916087
2004-11-22 08:57:20 51°12.447 2°48.713 14.030974 0.065345 0.404306 -0.916087
2004-11-22 08:57:25 51°12.438 2°48.691 14.03971 0.065345 0.40429 -0.882377
2004-11-22 08:57:30 51°12.43 2°48.668 14.036321 0.065345 0.404298 -0.916087
2004-11-22 08:57:34 51°12.423 2°48.65 14.034316 0.065345 0.404298 -0.882377
2004-11-22 08:57:38 51°12.417 2°48.632 14.040235 0.065345 0.404283 -0.916087
2004-11-22 08:57:54 51°12.391 2°48.561 14.042096 0.065345 0.404283 -0.916087
2004-11-22 08:58:00 51°12.381 2°48.536 14.053408 0.065345 0.404313 -0.916087
2004-11-22 08:58:04 51°12.374 2°48.518 14.043385 0.065345 0.404298 -0.882377
2004-11-22 08:58:09 51°12.366 2°48.496 14.042526 0.065345 0.40429 -0.882377
2004-11-22 08:58:14 51°12.357 2°48.474 14.042526 0.065345 0.40429 -0.882377
2004-11-22 08:58:17 51°12.352 2°48.461 14.043194 0.065345 0.40429 -0.916087
2004-11-22 08:58:23 51°12.342 2°48.435 14.049494 0.065345 0.404298 -0.882377
2004-11-22 08:58:30 51°12.331 2°48.404 14.056319 0.065345 0.404306 -0.916087
2004-11-22 08:58:34 51°12.325 2°48.386 14.049637 0.065345 0.40429 -0.882377
2004-11-22 08:58:40 51°12.315 2°48.36 14.052406 0.065345 0.404298 -0.882377
2004-11-22 08:58:45 51°12.307 2°48.337 14.052406 0.065345 0.404298 -0.882377
2004-11-22 08:58:47 51°12.304 2°48.328 14.048349 0.065345 0.40429 -0.916087
2004-11-22 08:59:02 51°12.279 2°48.263 14.05336 0.065345 0.404306 -0.916087
2004-11-22 08:59:08 51°12.27 2°48.236 14.053646 0.065345 0.404298 -0.882377
2004-11-22 08:59:10 51°12.266 2°48.227 14.068487 0.065345 0.404298 -0.916087
2004-11-22 08:59:18 51°12.253 2°48.192 14.057225 0.065345 0.40429 -0.882377
2004-11-22 08:59:23 51°12.245 2°48.171 14.055746 0.065345 0.404283 -0.882377
2004-11-22 08:59:26 51°12.24 2°48.158 14.062093 0.065345 0.404298 -0.916087
2004-11-22 08:59:31 51°12.232 2°48.136 14.062093 0.065345 0.404298 -0.916087
2004-11-22 08:59:38 51°12.22 2°48.105 14.073878 0.065345 0.404283 -0.882377
2004-11-22 08:59:43 51°12.212 2°48.083 14.061425 0.065345 0.404283 -0.916087
2004-11-22 08:59:48 51°12.204 2°48.062 14.07841 0.065345 0.404298 -0.882377
2004-11-22 08:59:50 51°12.201 2°48.053 14.064765 0.065345 0.404283 -0.882377
2004-11-22 09:00:14 51°12.162 2°47.947 14.081463 0.065345 0.40429 -0.882377
2004-11-22 09:00:18 51°12.155 2°47.929 14.073735 0.065345 0.40429 -0.916087
2004-11-22 09:00:24 51°12.146 2°47.902 14.071731 0.065345 0.404275 -0.882377
2004-11-22 09:00:28 51°12.139 2°47.884 14.07426 0.065345 0.404275 -0.882377
2004-11-22 09:00:34 51°12.129 2°47.858 14.081177 0.065345 0.404267 -0.916087
2004-11-22 09:00:40 51°12.118 2°47.831 14.075357 0.065345 0.404283 -0.916087
2004-11-22 09:00:43 51°12.113 2°47.818 14.075357 0.065345 0.404283 -0.916087
2004-11-22 09:00:50 51°12.102 2°47.787 14.086997 0.065345 0.404283 -0.882377
2004-11-22 09:00:52 51°12.099 2°47.778 14.084612 0.065345 0.404267 -0.882377
2004-11-22 09:01:00 51°12.085 2°47.742 14.085566 0.065345 0.404283 -0.916087
2004-11-22 09:01:05 51°12.077 2°47.719 14.09377 0.065345 0.404283 -0.882377
2004-11-22 09:01:10 51°12.069 2°47.697 14.085423 0.065345 0.40426 -0.916087
2004-11-22 09:01:12 51°12.066 2°47.688 14.085423 0.065345 0.40426 -0.916087
2004-11-22 09:01:20 51°12.053 2°47.651 14.097585 0.065345 0.404283 -0.882377
2004-11-22 09:01:25 51°12.045 2°47.629 14.087808 0.065345 0.404283 -0.882377
2004-11-22 09:01:30 51°12.036 2°47.606 14.09086 0.065345 0.404283 -0.882377
2004-11-22 09:01:34 51°12.03 2°47.588 14.105264 0.065345 0.404275 -0.882377
2004-11-22 09:01:40 51°12.02 2°47.561 14.094581 0.065345 0.404267 -0.882377
2004-11-22 09:01:45 51°12.012 2°47.538 14.094581 0.065345 0.404267 -0.882377
2004-11-22 09:01:48 51°12.007 2°47.525 14.097252 0.065345 0.404267 -0.882377
2004-11-22 09:01:55 51°11.996 2°47.493 14.098921 0.065345 0.404275 -0.882377
2004-11-22 09:02:14 51°11.964 2°47.409 14.103547 0.065345 0.40429 -0.882377
2004-11-22 09:02:19 51°11.956 2°47.386 14.10183 0.065345 0.404275 -0.882377
2004-11-22 09:02:30 51°11.938 2°47.337 14.107552 0.065345 0.404275 -0.916087
2004-11-22 09:02:36 51°11.928 2°47.309 14.106551 0.065345 0.404275 -0.882377
2004-11-22 09:02:40 51°11.922 2°47.291 14.104596 0.065345 0.404267 -0.882377
2004-11-22 09:02:46 51°11.912 2°47.264 14.110271 0.065345 0.40426 -0.916087
2004-11-22 09:02:48 51°11.908 2°47.255 14.110271 0.065345 0.40426 -0.916087
2004-11-22 09:03:23 51°11.849 2°47.097 14.120903 0.065345 0.40429 -0.916087
2004-11-22 09:03:28 51°11.841 2°47.074 14.123382 0.065345 0.404283 -0.916087
2004-11-22 09:03:30 51°11.838 2°47.065 14.123382 0.065345 0.404283 -0.916087
2004-11-22 09:03:44 51°11.815 2°47.001 14.126577 0.065345 0.40429 -0.882377
2004-11-22 09:03:51 51°11.803 2°46.97 14.126577 0.065345 0.40429 -0.882377
2004-11-22 09:03:54 51°11.798 2°46.956 14.12405 0.065345 0.404267 -0.882377
2004-11-22 09:03:58 51°11.791 2°46.939 14.124956 0.065345 0.40426 -0.916087
2004-11-22 09:04:04 51°11.781 2°46.912 14.139209 0.065345 0.404275 -0.882377
2004-11-22 09:04:10 51°11.771 2°46.885 14.123907 0.065345 0.404267 -0.916087
2004-11-22 09:04:14 51°11.765 2°46.867 14.13101 0.065345 0.404283 -0.882377
2004-11-22 09:04:20 51°11.755 2°46.84 14.13101 0.065345 0.404283 -0.882377
2004-11-22 09:04:26 51°11.745 2°46.813 14.135825 0.065345 0.404267 -0.916087
2004-11-22 09:04:28 51°11.742 2°46.804 14.137874 0.065345 0.404267 -0.882377
2004-11-22 09:04:36 51°11.729 2°46.767 14.135253 0.065345 0.40426 -0.882377
2004-11-22 09:04:41 51°11.721 2°46.744 14.142116 0.065345 0.40426 -0.916087
2004-11-22 09:04:46 51°11.712 2°46.722 14.144499 0.065345 0.404267 -0.882377
2004-11-22 09:04:50 51°11.706 2°46.703 14.144499 0.065345 0.404267 -0.882377
2004-11-22 09:04:54 51°11.699 2°46.685 14.139638 0.065345 0.404267 -0.882377
2004-11-22 09:05:00 51°11.69 2°46.658 14.139447 0.065345 0.404252 -0.916087
2004-11-22 09:05:06 51°11.679 2°46.631 14.147597 0.065345 0.404275 -0.882377
2004-11-22 09:05:10 51°11.672 2°46.613 14.141592 0.065345 0.404267 -0.882377
2004-11-22 09:05:16 51°11.662 2°46.586 14.147549 0.065345 0.404267 -0.882377
2004-11-22 09:05:18 51°11.659 2°46.576 14.147549 0.065345 0.404267 -0.882377
2004-11-22 09:05:26 51°11.645 2°46.54 14.147216 0.065345 0.404275 -0.848668
2004-11-22 09:05:30 51°11.639 2°46.523 14.140829 0.065345 0.404244 -0.882377
2004-11-22 09:05:36 51°11.628 2°46.497 14.147264 0.065345 0.404267 -0.882377
2004-11-22 09:05:40 51°11.621 2°46.479 14.148407 0.065345 0.404252 -0.916087
2004-11-22 09:05:46 51°11.611 2°46.452 14.147692 0.065345 0.404244 -0.882377
2004-11-22 09:05:51 51°11.603 2°46.429 14.147692 0.065345 0.404244 -0.882377
2004-11-22 09:05:56 51°11.595 2°46.407 14.153459 0.065345 0.40426 -0.916087
2004-11-22 09:06:00 51°11.588 2°46.388 14.154889 0.065345 0.40426 -0.882377
2004-11-22 09:06:06 51°11.578 2°46.361 14.157509 0.065345 0.404267 -0.916087
2004-11-22 09:06:10 51°11.571 2°46.343 14.15527 0.065345 0.40426 -0.916087
2004-11-22 09:06:23 51°11.55 2°46.284 14.159606 0.065345 0.404252 -0.916087
2004-11-22 09:06:28 51°11.541 2°46.262 14.16013 0.065345 0.404252 -0.882377
2004-11-22 09:06:33 51°11.533 2°46.239 14.16013 0.065345 0.404252 -0.882377
2004-11-22 09:06:38 51°11.525 2°46.216 14.166134 0.065345 0.404244 -0.916087
2004-11-22 09:06:42 51°11.518 2°46.198 14.161607 0.065345 0.404252 -0.882377
2004-11-22 09:06:55 51°11.496 2°46.139 14.172327 0.065345 0.404275 -0.882377
2004-11-22 09:07:00 51°11.488 2°46.116 14.176425 0.065345 0.404252 -0.916087
2004-11-22 09:07:05 51°11.479 2°46.093 14.169421 0.065345 0.404252 -0.882377
2004-11-22 09:07:10 51°11.471 2°46.07 14.173185 0.065345 0.404252 -0.882377
2004-11-22 09:07:14 51°11.464 2°46.052 14.173185 0.065345 0.404252 -0.882377
2004-11-22 09:07:20 51°11.455 2°46.024 14.175853 0.065345 0.404267 -0.916087
2004-11-22 09:07:23 51°11.45 2°46.011 14.186666 0.065345 0.404252 -0.882377
2004-11-22 09:07:30 51°11.438 2°45.979 14.174948 0.065448 0.404918 -0.916087
2004-11-22 09:07:34 51°11.432 2°45.961 14.179569 0.065345 0.404252 -0.882377
2004-11-22 09:07:54 51°11.398 2°45.87 14.187428 0.065345 0.404244 -0.882377
2004-11-22 09:07:58 51°11.391 2°45.853 14.185713 0.065345 0.40426 -0.882377
2004-11-22 09:08:04 51°11.381 2°45.826 14.181617 0.065345 0.404252 -0.916087
2004-11-22 09:08:08 51°11.374 2°45.807 14.181617 0.065345 0.404252 -0.916087
2004-11-22 09:08:14 51°11.364 2°45.78 14.195382 0.065345 0.404252 -0.916087
2004-11-22 09:08:19 51°11.357 2°45.757 14.191286 0.065345 0.40426 -0.916087
2004-11-22 09:08:24 51°11.348 2°45.734 14.191286 0.065345 0.404252 -0.882377
2004-11-22 09:08:28 51°11.341 2°45.716 14.191477 0.065345 0.404252 -0.882377
2004-11-22 09:08:32 51°11.335 2°45.698 14.199525 0.065345 0.40426 -0.882377
2004-11-22 09:08:39 51°11.323 2°45.666 14.199525 0.065345 0.40426 -0.882377
2004-11-22 09:08:54 51°11.303 2°45.594 14.199287 0.065345 0.404244 -0.882377
2004-11-22 09:09:00 51°11.295 2°45.564 14.207192 0.065345 0.404229 -0.916087
2004-11-22 09:09:02 51°11.293 2°45.555 14.199049 0.065345 0.40426 -0.882377
2004-11-22 09:09:14 51°11.28 2°45.495 14.204668 0.065345 0.404237 -0.916087
2004-11-22 09:09:19 51°11.275 2°45.471 14.202954 0.065345 0.404275 -0.882377
2004-11-22 09:09:24 51°11.269 2°45.445 14.212192 0.065345 0.404252 -0.916087
2004-11-22 09:09:30 51°11.263 2°45.415 14.210383 0.065345 0.40426 -0.916087
2004-11-22 09:09:34 51°11.259 2°45.395 14.206764 0.065345 0.40426 -0.882377
2004-11-22 09:09:40 51°11.253 2°45.364 14.211763 0.065345 0.404252 -0.882377
2004-11-22 09:09:45 51°11.248 2°45.339 14.211763 0.065345 0.404252 -0.882377
2004-11-22 09:09:50 51°11.243 2°45.314 14.212668 0.065345 0.404252 -0.916087
2004-11-22 09:09:54 51°11.239 2°45.293 14.211621 0.065345 0.40426 -0.916087
2004-11-22 09:10:00 51°11.233 2°45.263 14.219 0.065345 0.40426 -0.882377
2004-11-22 09:10:04 51°11.229 2°45.242 14.213287 0.065345 0.404252 -0.882377
2004-11-22 09:10:10 51°11.223 2°45.212 14.214906 0.065345 0.404244 -0.882377
2004-11-22 09:10:15 51°11.217 2°45.186 14.214906 0.065345 0.404244 -0.882377
2004-11-22 09:10:31 51°11.2 2°45.106 14.223571 0.065345 0.404252 -0.848668
2004-11-22 09:10:36 51°11.195 2°45.081 14.220762 0.065345 0.404252 -0.882377
2004-11-22 09:10:41 51°11.19 2°45.056 14.228188 0.065345 0.404252 -0.882377
2004-11-22 09:10:45 51°11.186 2°45.036 14.232663 0.065345 0.404252 -0.882377
2004-11-22 09:10:51 51°11.179 2°45.006 14.232663 0.065345 0.404252 -0.882377
2004-11-22 09:10:54 51°11.177 2°44.991 14.224475 0.065345 0.404244 -0.916087
2004-11-22 09:11:13 51°11.156 2°44.896 14.235757 0.065448 0.404903 -0.882377
2004-11-22 09:11:20 51°11.149 2°44.861 14.234329 0.065345 0.404252 -0.882377
2004-11-22 09:11:22 51°11.147 2°44.851 14.240802 0.065345 0.404237 -0.882377
2004-11-22 09:11:30 51°11.138 2°44.811 14.233425 0.065345 0.404237 -0.882377
2004-11-22 09:11:54 51°11.112 2°44.692 14.246275 0.065345 0.404244 -0.916087
2004-11-22 09:12:00 51°11.106 2°44.662 14.23985 0.065345 0.404237 -0.882377
2004-11-22 09:12:04 51°11.102 2°44.642 14.24737 0.065345 0.404244 -0.882377
2004-11-22 09:12:10 51°11.096 2°44.612 14.245466 0.065345 0.404244 -0.882377
2004-11-22 09:12:12 51°11.094 2°44.602 14.245466 0.065345 0.404244 -0.882377
2004-11-22 09:12:22 51°11.082 2°44.553 14.247179 0.065345 0.404244 -0.916087
2004-11-22 09:12:28 51°11.076 2°44.523 14.252747 0.065345 0.404252 -0.916087
2004-11-22 09:12:32 51°11.072 2°44.503 14.252747 0.065345 0.404252 -0.916087
2004-11-22 09:12:38 51°11.065 2°44.473 14.256411 0.065345 0.404237 -0.916087
2004-11-22 09:12:43 51°11.06 2°44.448 14.250225 0.065345 0.404229 -0.916087
2004-11-22 09:12:47 51°11.056 2°44.428 14.259694 0.065345 0.404244 -0.882377
2004-11-22 09:12:52 51°11.051 2°44.403 14.253366 0.065345 0.404237 -0.916087
2004-11-22 09:13:03 51°11.039 2°44.347 14.260313 0.065345 0.404237 -0.882377
2004-11-22 09:13:08 51°11.033 2°44.322 14.256411 0.065345 0.404221 -0.916087
2004-11-22 09:13:13 51°11.028 2°44.298 14.258124 0.065448 0.404887 -0.882377
2004-11-22 09:13:18 51°11.022 2°44.273 14.257553 0.065345 0.404237 -0.848668
2004-11-22 09:13:22 51°11.018 2°44.253 14.265404 0.065345 0.404237 -0.916087
2004-11-22 09:13:34 51°11.005 2°44.193 14.263501 0.065345 0.404229 -0.916087
2004-11-22 09:13:40 51°10.998 2°44.163 14.268021 0.065345 0.404237 -0.882377
2004-11-22 09:13:45 51°10.992 2°44.138 14.268021 0.065345 0.404237 -0.882377
2004-11-22 09:13:48 51°10.989 2°44.123 14.268687 0.065345 0.404221 -0.916087
2004-11-22 09:13:54 51°10.982 2°44.093 14.271732 0.065345 0.404221 -0.882377
2004-11-22 09:14:06 51°10.97 2°44.033 14.280104 0.065345 0.404221 -0.882377
2004-11-22 09:14:12 51°10.964 2°44.002 14.272635 0.065345 0.404237 -0.916087
2004-11-22 09:14:17 51°10.958 2°43.977 14.282197 0.065345 0.404244 -0.882377
2004-11-22 09:14:21 51°10.954 2°43.957 14.281578 0.065345 0.404229 -0.882377
2004-11-22 09:14:27 51°10.948 2°43.927 14.281578 0.065345 0.404229 -0.882377
2004-11-22 09:14:32 51°10.943 2°43.902 14.281816 0.065345 0.404237 -0.916087
2004-11-22 09:14:37 51°10.937 2°43.877 14.291329 0.065345 0.404237 -0.882377
2004-11-22 09:14:42 51°10.932 2°43.852 14.281578 0.065448 0.404887 -0.882377
2004-11-22 09:14:47 51°10.926 2°43.827 14.28995 0.065345 0.404229 -0.882377
2004-11-22 09:14:52 51°10.921 2°43.802 14.289141 0.065345 0.404221 -0.882377
2004-11-22 09:14:56 51°10.917 2°43.782 14.289141 0.065345 0.404221 -0.882377
2004-11-22 09:15:02 51°10.91 2°43.751 14.285431 0.065448 0.404895 -0.916087
2004-11-22 09:15:06 51°10.906 2°43.731 14.294373 0.065345 0.404229 -0.882377
2004-11-22 09:15:12 51°10.899 2°43.701 14.29014 0.065345 0.404229 -0.882377
2004-11-22 09:15:14 51°10.897 2°43.691 14.290711 0.065345 0.404229 -0.916087
2004-11-22 09:15:20 51°10.891 2°43.661 14.297939 0.065345 0.404214 -0.848668
2004-11-22 09:15:26 51°10.884 2°43.631 14.297939 0.065345 0.404214 -0.848668
2004-11-22 09:15:32 51°10.878 2°43.601 14.30745 0.065345 0.404229 -0.882377
2004-11-22 09:15:34 51°10.876 2°43.591 14.292851 0.065345 0.404214 -0.882377
2004-11-22 09:15:42 51°10.868 2°43.551 14.30065 0.065345 0.404221 -0.882377
2004-11-22 09:15:45 51°10.864 2°43.536 14.305405 0.065345 0.404214 -0.916087
2004-11-22 09:15:52 51°10.857 2°43.501 14.297844 0.065345 0.404221 -0.882377
2004-11-22 09:15:56 51°10.853 2°43.481 14.297844 0.065345 0.404221 -0.882377
2004-11-22 09:16:02 51°10.846 2°43.45 14.300032 0.065345 0.404206 -0.882377
2004-11-22 09:16:07 51°10.841 2°43.425 14.300317 0.065448 0.40488 -0.882377
2004-11-22 09:16:12 51°10.836 2°43.4 14.302933 0.065345 0.404214 -0.916087
2004-11-22 09:16:23 51°10.824 2°43.346 14.304074 0.065345 0.404206 -0.882377
2004-11-22 09:16:28 51°10.819 2°43.321 14.314059 0.065345 0.404221 -0.882377
2004-11-22 09:16:33 51°10.814 2°43.296 14.314059 0.065345 0.404221 -0.882377
2004-11-22 09:16:38 51°10.808 2°43.271 14.309589 0.065345 0.404214 -0.916087
2004-11-22 09:16:42 51°10.804 2°43.251 14.316198 0.065345 0.404221 -0.882377
2004-11-22 09:16:55 51°10.79 2°43.186 14.322474 0.065345 0.404206 -0.882377
2004-11-22 09:16:58 51°10.786 2°43.171 14.313726 0.065345 0.404206 -0.882377
2004-11-22 09:17:04 51°10.78 2°43.141 14.316721 0.065345 0.404206 -0.882377
2004-11-22 09:17:10 51°10.773 2°43.111 14.321808 0.065448 0.404864 -0.882377
2004-11-22 09:17:15 51°10.767 2°43.086 14.321808 0.065448 0.404864 -0.882377
2004-11-22 09:17:20 51°10.762 2°43.06 14.326181 0.065345 0.404206 -0.916087
2004-11-22 09:17:24 51°10.758 2°43.04 14.329366 0.065345 0.404214 -0.882377
2004-11-22 09:17:38 51°10.743 2°42.97 14.322806 0.065448 0.404872 -0.882377
2004-11-22 09:17:43 51°10.738 2°42.945 14.330032 0.065345 0.404214 -0.882377
2004-11-22 09:17:48 51°10.732 2°42.921 14.329747 0.065345 0.404206 -0.882377
2004-11-22 09:17:50 51°10.73 2°42.911 14.332884 0.065345 0.404206 -0.882377
2004-11-22 09:18:14 51°10.704 2°42.792 14.344148 0.065345 0.404198 -0.882377
2004-11-22 09:18:18 51°10.7 2°42.772 14.336401 0.065448 0.404857 -0.882377
2004-11-22 09:18:24 51°10.694 2°42.742 14.336639 0.065345 0.404206 -0.916087
2004-11-22 09:18:30 51°10.687 2°42.712 14.342152 0.065345 0.404214 -0.882377
2004-11-22 09:18:58 51°10.66 2°42.573 14.339823 0.065448 0.404841 -0.882377
2004-11-22 09:19:02 51°10.657 2°42.553 14.339823 0.065448 0.404841 -0.882377
2004-11-22 09:19:08 51°10.654 2°42.522 14.347142 0.065448 0.404849 -0.916087
2004-11-22 09:19:12 51°10.652 2°42.501 14.359021 0.065345 0.40419 -0.882377
2004-11-22 09:19:18 51°10.65 2°42.47 14.347379 0.065448 0.404857 -0.848668
2004-11-22 09:19:22 51°10.648 2°42.449 14.354269 0.065345 0.40419 -0.882377
2004-11-22 09:19:26 51°10.647 2°42.428 14.356265 0.065345 0.404198 -0.882377
2004-11-22 09:19:32 51°10.645 2°42.396 14.356265 0.065345 0.404198 -0.882377
2004-11-22 09:19:38 51°10.643 2°42.365 14.361444 0.065345 0.404206 -0.882377
2004-11-22 09:19:42 51°10.641 2°42.344 14.362917 0.065448 0.404857 -0.882377
2004-11-22 09:19:48 51°10.638 2°42.312 14.359401 0.065448 0.404872 -0.882377
2004-11-22 09:19:53 51°10.635 2°42.287 14.359354 0.065448 0.404872 -0.882377
2004-11-22 09:19:58 51°10.633 2°42.261 14.362774 0.065345 0.404198 -0.882377
2004-11-22 09:20:02 51°10.631 2°42.24 14.362774 0.065345 0.404198 -0.882377
2004-11-22 09:20:08 51°10.628 2°42.209 14.363867 0.065448 0.404864 -0.882377
2004-11-22 09:20:13 51°10.625 2°42.183 14.377881 0.065345 0.404206 -0.882377
2004-11-22 09:20:18 51°10.622 2°42.157 14.374271 0.065345 0.404206 -0.916087
2004-11-22 09:20:20 51°10.62 2°42.147 14.374794 0.065345 0.404206 -0.882377
2004-11-22 09:20:34 51°10.61 2°42.075 14.370091 0.065345 0.40419 -0.882377
2004-11-22 09:20:38 51°10.607 2°42.054 14.370091 0.065345 0.40419 -0.882377
2004-11-22 09:20:44 51°10.602 2°42.024 14.379734 0.065345 0.404183 -0.882377
2004-11-22 09:20:48 51°10.599 2°42.003 14.373511 0.065345 0.404175 -0.882377
2004-11-22 09:20:54 51°10.594 2°41.972 14.371943 0.065345 0.404175 -0.882377
2004-11-22 09:20:56 51°10.592 2°41.962 14.374936 0.065448 0.404841 -0.916087
2004-11-22 09:21:06 51°10.584 2°41.91 14.380874 0.065345 0.404183 -0.916087
2004-11-22 09:21:10 51°10.581 2°41.89 14.386003 0.065345 0.40419 -0.882377
2004-11-22 09:21:14 51°10.578 2°41.869 14.385671 0.065448 0.404849 -0.882377
2004-11-22 09:21:21 51°10.572 2°41.833 14.385671 0.065448 0.404849 -0.882377
2004-11-22 09:21:26 51°10.568 2°41.807 14.379781 0.065345 0.404175 -0.882377
2004-11-22 09:21:30 51°10.565 2°41.787 14.383296 0.065448 0.404849 -0.882377
2004-11-22 09:21:36 51°10.56 2°41.756 14.392795 0.065345 0.404175 -0.882377
2004-11-22 09:21:39 51°10.558 2°41.74 14.384863 0.065345 0.404183 -0.882377
2004-11-22 09:21:45 51°10.553 2°41.709 14.384721 0.065448 0.404834 -0.916087
2004-11-22 09:21:51 51°10.549 2°41.679 14.384721 0.065448 0.404834 -0.916087
2004-11-22 09:21:56 51°10.546 2°41.653 14.399728 0.065345 0.404175 -0.882377
2004-11-22 09:22:00 51°10.543 2°41.632 14.397591 0.065448 0.404826 -0.882377
2004-11-22 09:22:06 51°10.538 2°41.601 14.40101 0.065345 0.404183 -0.882377
2004-11-22 09:22:10 51°10.535 2°41.58 14.394219 0.065448 0.404826 -0.916087
2004-11-22 09:22:14 51°10.532 2°41.559 14.405996 0.065345 0.404183 -0.916087
2004-11-22 09:22:21 51°10.527 2°41.523 14.405996 0.065345 0.404183 -0.916087
2004-11-22 09:22:26 51°10.523 2°41.497 14.398303 0.065448 0.404841 -0.882377
2004-11-22 09:22:30 51°10.52 2°41.477 14.394979 0.065448 0.404826 -0.882377
2004-11-22 09:22:36 51°10.515 2°41.446 14.414589 0.065448 0.404834 -0.882377
2004-11-22 09:22:38 51°10.514 2°41.436 14.40101 0.065448 0.404841 -0.916087
2004-11-22 09:22:46 51°10.508 2°41.395 14.411171 0.065345 0.404167 -0.882377
2004-11-22 09:22:50 51°10.505 2°41.374 14.411171 0.065345 0.404167 -0.882377
2004-11-22 09:22:56 51°10.501 2°41.344 14.410221 0.065448 0.404826 -0.848668
2004-11-22 09:23:00 51°10.498 2°41.323 14.405996 0.065448 0.404841 -0.916087
2004-11-22 09:23:06 51°10.494 2°41.292 14.409462 0.065345 0.404167 -0.882377
2004-11-22 09:23:10 51°10.491 2°41.272 14.411124 0.065448 0.404826 -0.916087
2004-11-22 09:23:16 51°10.486 2°41.241 14.413545 0.065448 0.404834 -0.882377
2004-11-22 09:23:20 51°10.483 2°41.22 14.413545 0.065448 0.404834 -0.882377
2004-11-22 09:23:26 51°10.479 2°41.19 14.41231 0.065448 0.404826 -0.882377
2004-11-22 09:23:27 51°10.478 2°41.185 14.420001 0.065345 0.40416 -0.882377
2004-11-22 09:23:36 51°10.471 2°41.139 14.413972 0.065448 0.404818 -0.882377
2004-11-22 09:23:41 51°10.468 2°41.113 14.423846 0.065345 0.404167 -0.882377
2004-11-22 09:23:46 51°10.464 2°41.088 14.420191 0.065448 0.404826 -0.882377
2004-11-22 09:23:48 51°10.462 2°41.078 14.420191 0.065448 0.404826 -0.882377
2004-11-22 09:23:56 51°10.456 2°41.037 14.425555 0.065345 0.404152 -0.882377
2004-11-22 09:24:00 51°10.453 2°41.017 14.421948 0.065448 0.404826 -0.882377
2004-11-22 09:24:06 51°10.449 2°40.986 14.42641 0.065345 0.40416 -0.916087
2004-11-22 09:24:22 51°10.437 2°40.904 14.435048 0.065345 0.404152 -0.916087
2004-11-22 09:24:42 51°10.423 2°40.801 14.437659 0.065448 0.404811 -0.916087
2004-11-22 09:24:48 51°10.418 2°40.771 14.433197 0.065448 0.404818 -0.882377
2004-11-22 09:24:52 51°10.416 2°40.75 14.446865 0.065345 0.404144 -0.916087
2004-11-22 09:24:57 51°10.412 2°40.725 14.446865 0.065345 0.404144 -0.916087
2004-11-22 09:25:02 51°10.409 2°40.699 14.439082 0.065448 0.404803 -0.882377
2004-11-22 09:25:06 51°10.406 2°40.679 14.438845 0.065448 0.404803 -0.882377
2004-11-22 09:25:12 51°10.401 2°40.649 14.439462 0.065448 0.404795 -0.882377
2004-11-22 09:25:16 51°10.399 2°40.628 14.446913 0.065448 0.404795 -0.882377
2004-11-22 09:25:21 51°10.395 2°40.603 14.443021 0.065448 0.404787 -0.882377
2004-11-22 09:25:25 51°10.392 2°40.583 14.443021 0.065448 0.404787 -0.882377
2004-11-22 09:25:35 51°10.384 2°40.533 14.454837 0.065448 0.404772 -0.916087
2004-11-22 09:25:39 51°10.381 2°40.512 14.457826 0.065345 0.404121 -0.882377
2004-11-22 09:25:45 51°10.376 2°40.482 14.457826 0.065345 0.404121 -0.882377
2004-11-22 09:25:55 51°10.368 2°40.431 14.457162 0.065345 0.404129 -0.882377
2004-11-22 09:25:59 51°10.365 2°40.41 14.452844 0.065448 0.40478 -0.882377
2004-11-22 09:26:05 51°10.361 2°40.38 14.455881 0.065448 0.404787 -0.916087
2004-11-22 09:26:15 51°10.354 2°40.328 14.464041 0.065448 0.40478 -0.882377
2004-11-22 09:26:19 51°10.351 2°40.307 14.463377 0.065448 0.404787 -0.916087
2004-11-22 09:26:25 51°10.346 2°40.276 14.460388 0.065448 0.404795 -0.916087
2004-11-22 09:26:35 51°10.339 2°40.224 14.469117 0.065345 0.404137 -0.916087
2004-11-22 09:26:39 51°10.336 2°40.204 14.466271 0.065448 0.404764 -0.882377
2004-11-22 09:26:45 51°10.331 2°40.173 14.466271 0.065448 0.404764 -0.882377
2004-11-22 09:26:55 51°10.323 2°40.122 14.464658 0.065448 0.404772 -0.916087
2004-11-22 09:26:59 51°10.32 2°40.102 14.481687 0.065448 0.404772 -0.916087
2004-11-22 09:27:05 51°10.316 2°40.072 14.471536 0.065448 0.404772 -0.882377
2004-11-22 09:27:15 51°10.31 2°40.021 14.469734 0.065448 0.404772 -0.882377
2004-11-22 09:27:19 51°10.307 2°40.001 14.491409 0.065448 0.404787 -0.882377
2004-11-22 09:27:25 51°10.302 2°39.971 14.478414 0.065448 0.404764 -0.882377
2004-11-22 09:27:35 51°10.295 2°39.921 14.483821 0.065448 0.404757 -0.882377
2004-11-22 09:27:39 51°10.292 2°39.901 14.480501 0.065448 0.404757 -0.882377
2004-11-22 09:27:45 51°10.288 2°39.872 14.480501 0.065448 0.404757 -0.882377
2004-11-22 09:27:55 51°10.281 2°39.822 14.495061 0.065448 0.404764 -0.882377
2004-11-22 09:27:59 51°10.278 2°39.802 14.487663 0.065448 0.404757 -0.882377
2004-11-22 09:28:05 51°10.274 2°39.773 14.498475 0.065448 0.404757 -0.916087
2004-11-22 09:28:15 51°10.266 2°39.723 14.496768 0.065448 0.40478 -0.882377
2004-11-22 09:28:20 51°10.263 2°39.698 14.499092 0.065448 0.404749 -0.916087
2004-11-22 09:28:24 51°10.26 2°39.678 14.494207 0.065448 0.404764 -0.916087
2004-11-22 09:28:30 51°10.256 2°39.648 14.495393 0.065448 0.404757 -0.882377
2004-11-22 09:28:32 51°10.254 2°39.638 14.496815 0.065448 0.404741 -0.916087
2004-11-22 09:28:42 51°10.248 2°39.587 14.498949 0.065448 0.404741 -0.916087
2004-11-22 09:28:47 51°10.245 2°39.562 14.507437 0.065448 0.404741 -0.916087
2004-11-22 09:28:52 51°10.242 2°39.537 14.502221 0.065448 0.404741 -0.916087
2004-11-22 09:28:56 51°10.24 2°39.517 14.502221 0.065448 0.404741 -0.916087
2004-11-22 09:29:02 51°10.236 2°39.486 14.5081 0.065448 0.404726 -0.882377
2004-11-22 09:29:07 51°10.234 2°39.461 14.507626 0.065448 0.404741 -0.916087
2004-11-22 09:29:12 51°10.231 2°39.436 14.511656 0.065448 0.404749 -0.916087
2004-11-22 09:29:16 51°10.228 2°39.416 14.518151 0.065448 0.404741 -0.916087
2004-11-22 09:29:22 51°10.225 2°39.386 14.512462 0.065448 0.404749 -0.882377
2004-11-22 09:29:26 51°10.223 2°39.366 14.512462 0.065448 0.404749 -0.882377
2004-11-22 09:29:32 51°10.22 2°39.336 14.52583 0.065448 0.404734 -0.916087
2004-11-22 09:29:36 51°10.217 2°39.316 14.51981 0.065448 0.404741 -0.882377
2004-11-22 09:29:42 51°10.214 2°39.287 14.516207 0.065448 0.404734 -0.916087
2004-11-22 09:29:48 51°10.21 2°39.257 14.520094 0.065448 0.404734 -0.916087
2004-11-22 09:29:52 51°10.207 2°39.237 14.521137 0.065448 0.404718 -0.882377
2004-11-22 09:29:55 51°10.205 2°39.222 14.521137 0.065448 0.404718 -0.882377
2004-11-22 09:30:01 51°10.202 2°39.193 14.525925 0.065448 0.404734 -0.916087
2004-11-22 09:30:06 51°10.199 2°39.168 14.524503 0.065448 0.404711 -0.916087
2004-11-22 09:30:12 51°10.196 2°39.139 14.531565 0.065448 0.404726 -0.882377
2004-11-22 09:30:16 51°10.194 2°39.119 14.533176 0.065448 0.404718 -0.882377
2004-11-22 09:30:22 51°10.19 2°39.089 14.530048 0.065448 0.404718 -0.916087
2004-11-22 09:30:27 51°10.187 2°39.064 14.530048 0.065448 0.404718 -0.916087
2004-11-22 09:30:32 51°10.184 2°39.04 14.530996 0.065448 0.404726 -0.882377
2004-11-22 09:30:37 51°10.181 2°39.015 14.533271 0.065448 0.404734 -0.882377
2004-11-22 09:30:42 51°10.178 2°38.99 14.543223 0.065448 0.404718 -0.916087
2004-11-22 09:30:46 51°10.176 2°38.971 14.532229 0.065448 0.404703 -0.882377
2004-11-22 09:30:52 51°10.172 2°38.942 14.539764 0.065448 0.404718 -0.916087
2004-11-22 09:30:57 51°10.169 2°38.917 14.539764 0.065448 0.404718 -0.916087
2004-11-22 09:31:02 51°10.166 2°38.892 14.542986 0.065448 0.404703 -0.916087
2004-11-22 09:31:04 51°10.164 2°38.883 14.547535 0.065448 0.404726 -0.882377
2004-11-22 09:31:12 51°10.16 2°38.843 14.542513 0.065448 0.404711 -0.916087
2004-11-22 09:31:17 51°10.157 2°38.819 14.547772 0.065448 0.404695 -0.882377
2004-11-22 09:31:20 51°10.155 2°38.804 14.550521 0.065448 0.404718 -0.882377
2004-11-22 09:31:38 51°10.145 2°38.714 14.554501 0.065448 0.404726 -0.916087
2004-11-22 09:31:42 51°10.142 2°38.694 14.555022 0.065448 0.404695 -0.882377
2004-11-22 09:31:48 51°10.139 2°38.664 14.557201 0.065448 0.404711 -0.916087
2004-11-22 09:31:50 51°10.137 2°38.653 14.564023 0.065448 0.404695 -0.882377
2004-11-22 09:32:14 51°10.124 2°38.532 14.569234 0.065448 0.404695 -0.882377
2004-11-22 09:32:20 51°10.12 2°38.502 14.568334 0.065448 0.404695 -0.882377
2004-11-22 09:32:24 51°10.119 2°38.481 14.570797 0.065448 0.404688 -0.882377
2004-11-22 09:32:30 51°10.115 2°38.451 14.573971 0.065448 0.404695 -0.882377
2004-11-22 09:32:34 51°10.113 2°38.431 14.568239 0.065448 0.404703 -0.916087
2004-11-22 09:32:40 51°10.109 2°38.4 14.568334 0.065448 0.404688 -0.916087
2004-11-22 09:32:45 51°10.106 2°38.375 14.568334 0.065448 0.404688 -0.916087
2004-11-22 09:32:50 51°10.104 2°38.349 14.569424 0.065448 0.404688 -0.882377
2004-11-22 09:32:54 51°10.101 2°38.329 14.577429 0.065448 0.404688 -0.882377
2004-11-22 09:33:00 51°10.098 2°38.298 14.580886 0.065448 0.40468 -0.916087
2004-11-22 09:33:04 51°10.095 2°38.277 14.572171 0.065448 0.404665 -0.882377
2004-11-22 09:33:14 51°10.089 2°38.227 14.581644 0.065448 0.404695 -0.882377
2004-11-22 09:33:18 51°10.086 2°38.207 14.576339 0.065448 0.404665 -0.916087
2004-11-22 09:33:24 51°10.083 2°38.176 14.582023 0.065448 0.404688 -0.882377
2004-11-22 09:33:30 51°10.079 2°38.146 14.584912 0.065448 0.40468 -0.882377
2004-11-22 09:33:35 51°10.076 2°38.12 14.591589 0.065448 0.40468 -0.882377
2004-11-22 09:33:48 51°10.069 2°38.053 14.595188 0.065448 0.404665 -0.916087
2004-11-22 09:33:54 51°10.065 2°38.022 14.586806 0.065448 0.404665 -0.882377
2004-11-22 09:33:59 51°10.062 2°37.997 14.593815 0.065448 0.404672 -0.882377
2004-11-22 09:34:04 51°10.059 2°37.971 14.595709 0.065448 0.404665 -0.882377
2004-11-22 09:34:18 51°10.051 2°37.899 14.605699 0.065448 0.404672 -0.916087
2004-11-22 09:34:24 51°10.047 2°37.869 14.598076 0.065448 0.404649 -0.882377
2004-11-22 09:34:29 51°10.044 2°37.844 14.603332 0.065448 0.404688 -0.882377
2004-11-22 09:34:32 51°10.042 2°37.829 14.605037 0.065448 0.404665 -0.882377
2004-11-22 09:34:38 51°10.039 2°37.798 14.605037 0.065448 0.404665 -0.882377
2004-11-22 09:34:42 51°10.036 2°37.777 14.605179 0.065448 0.404665 -0.882377
2004-11-22 09:34:52 51°10.03 2°37.726 14.608635 0.065448 0.404657 -0.882377
2004-11-22 09:34:59 51°10.025 2°37.691 14.608871 0.065448 0.404642 -0.882377
2004-11-22 09:35:16 51°10.014 2°37.604 14.61583 0.065448 0.404642 -0.916087
2004-11-22 09:35:20 51°10.012 2°37.583 14.61583 0.065448 0.404642 -0.916087
2004-11-22 09:35:26 51°10.009 2°37.552 14.625345 0.065448 0.404634 -0.916087
2004-11-22 09:35:30 51°10.006 2°37.531 14.617913 0.065448 0.404634 -0.916087
2004-11-22 09:35:36 51°10.003 2°37.5 14.622458 0.065448 0.404642 -0.882377
2004-11-22 09:35:39 51°10.001 2°37.485 14.621227 0.065448 0.404649 -0.882377
2004-11-22 09:36:04 51°9.985 2°37.357 14.627001 0.065448 0.404619 -0.916087
2004-11-22 09:36:08 51°9.983 2°37.336 14.628421 0.065448 0.404642 -0.916087
2004-11-22 09:36:12 51°9.98 2°37.315 14.631119 0.065448 0.404642 -0.882377
2004-11-22 09:36:16 51°9.978 2°37.294 14.632633 0.065448 0.404634 -0.882377
2004-11-22 09:36:34 51°9.966 2°37.202 14.637697 0.065448 0.404611 -0.916087
2004-11-22 09:36:39 51°9.963 2°37.176 14.637697 0.065448 0.404611 -0.916087
2004-11-22 09:36:42 51°9.961 2°37.161 14.639212 0.065448 0.404634 -0.882377
2004-11-22 09:36:58 51°9.951 2°37.079 14.643754 0.065448 0.404619 -0.882377
2004-11-22 09:37:03 51°9.948 2°37.054 14.643754 0.065448 0.404619 -0.882377
2004-11-22 09:37:08 51°9.946 2°37.029 14.645032 0.065448 0.404619 -0.916087
2004-11-22 09:37:10 51°9.945 2°37.019 14.652602 0.065448 0.404619 -0.916087
2004-11-22 09:37:34 51°9.931 2°36.897 14.651183 0.065448 0.404611 -0.882377
2004-11-22 09:37:40 51°9.929 2°36.866 14.657617 0.065448 0.404603 -0.916087
2004-11-22 09:37:44 51°9.927 2°36.846 14.657617 0.065448 0.404603 -0.916087
2004-11-22 09:37:50 51°9.926 2°36.815 14.65828 0.065448 0.404603 -0.882377
2004-11-22 09:37:54 51°9.925 2°36.795 14.670201 0.065448 0.404603 -0.882377
2004-11-22 09:37:59 51°9.925 2°36.769 14.662254 0.065448 0.404603 -0.916087
2004-11-22 09:38:04 51°9.925 2°36.743 14.663673 0.065448 0.404596 -0.882377
2004-11-22 09:38:08 51°9.925 2°36.723 14.667315 0.065448 0.404611 -0.882377
2004-11-22 09:38:15 51°9.924 2°36.687 14.667315 0.065448 0.404611 -0.882377
2004-11-22 09:38:19 51°9.923 2°36.666 14.676302 0.065448 0.404611 -0.916087
2004-11-22 09:38:32 51°9.922 2°36.599 14.677295 0.065448 0.404596 -0.882377
2004-11-22 09:38:34 51°9.922 2°36.588 14.673417 0.065448 0.404611 -0.916087
2004-11-22 09:38:40 51°9.921 2°36.557 14.671289 0.065448 0.404588 -0.882377
2004-11-22 09:38:45 51°9.921 2°36.531 14.686518 0.065448 0.404596 -0.916087
2004-11-22 09:38:50 51°9.921 2°36.505 14.686518 0.065448 0.404596 -0.916087
2004-11-22 09:38:54 51°9.92 2°36.485 14.678478 0.065448 0.404603 -0.916087
2004-11-22 09:38:59 51°9.92 2°36.459 14.686612 0.065448 0.404596 -0.882377
2004-11-22 09:39:06 51°9.919 2°36.423 14.686139 0.065448 0.404603 -0.882377
2004-11-22 09:39:10 51°9.918 2°36.402 14.685288 0.065448 0.40458 -0.882377
2004-11-22 09:39:16 51°9.918 2°36.371 14.682403 0.065448 0.40458 -0.882377
2004-11-22 09:39:21 51°9.918 2°36.345 14.682403 0.065448 0.40458 -0.882377
2004-11-22 09:39:24 51°9.917 2°36.33 14.686045 0.065448 0.404596 -0.882377
2004-11-22 09:39:34 51°9.916 2°36.279 14.688551 0.065448 0.404588 -0.916087
2004-11-22 09:39:40 51°9.915 2°36.248 14.686281 0.065448 0.404565 -0.882377
2004-11-22 09:39:46 51°9.915 2°36.218 14.696732 0.065448 0.404603 -0.916087
2004-11-22 09:39:50 51°9.915 2°36.198 14.696732 0.065448 0.404603 -0.916087
2004-11-22 09:39:56 51°9.917 2°36.168 14.695218 0.065448 0.404565 -0.916087
2004-11-22 09:40:00 51°9.919 2°36.148 14.69257 0.065448 0.404557 -0.882377
2004-11-22 09:40:06 51°9.925 2°36.119 14.695928 0.065448 0.404542 -0.882377
2004-11-22 09:40:11 51°9.93 2°36.094 14.704391 0.065448 0.404565 -0.882377
2004-11-22 09:40:16 51°9.936 2°36.07 14.700845 0.065448 0.404573 -0.916087
2004-11-22 09:40:21 51°9.943 2°36.046 14.700845 0.065448 0.404573 -0.916087
2004-11-22 09:40:34 51°9.963 2°35.986 14.704864 0.065448 0.404573 -0.916087
2004-11-22 09:40:39 51°9.973 2°35.964 14.704864 0.065448 0.404573 -0.916087
2004-11-22 09:40:44 51°9.984 2°35.944 14.714035 0.065448 0.404573 -0.916087
2004-11-22 09:40:47 51°9.991 2°35.932 14.712664 0.065448 0.40455 -0.882377
2004-11-22 09:40:52 51°10.004 2°35.912 14.711908 0.065448 0.404557 -0.916087
2004-11-22 09:40:57 51°10.018 2°35.895 14.71238 0.065448 0.404542 -0.882377
2004-11-22 09:41:01 51°10.03 2°35.882 14.720133 0.065448 0.404573 -0.882377
2004-11-22 09:41:06 51°10.046 2°35.869 14.720133 0.065448 0.404573 -0.882377
2004-11-22 09:41:12 51°10.066 2°35.853 14.721267 0.065448 0.404588 -0.882377
2004-11-22 09:41:19 51°10.089 2°35.838 14.729585 0.065448 0.404603 -0.882377
2004-11-22 09:41:24 51°10.107 2°35.828 14.723016 0.065448 0.404588 -0.848668
2004-11-22 09:41:28 51°10.121 2°35.821 14.737667 0.065448 0.404619 -0.882377
2004-11-22 09:41:31 51°10.131 2°35.816 14.732657 0.065448 0.404458 -0.916087
2004-11-22 09:41:39 51°10.16 2°35.807 14.732657 0.065448 0.404458 -0.916087
2004-11-22 09:41:44 51°10.179 2°35.806 14.728829 0.065448 0.404304 -0.882377
2004-11-22 09:41:48 51°10.194 2°35.804 14.740738 0.065448 0.404258 -0.916087
2004-11-22 09:41:53 51°10.213 2°35.809 14.729302 0.065448 0.404182 -0.916087
2004-11-22 09:41:59 51°10.236 2°35.815 14.731854 0.065448 0.404243 -0.882377
2004-11-22 09:42:03 51°10.251 2°35.823 14.734973 0.065448 0.40432 -0.916087
2004-11-22 09:42:09 51°10.272 2°35.838 14.734973 0.065448 0.40432 -0.916087
2004-11-22 09:42:14 51°10.29 2°35.852 14.738895 0.065448 0.404366 -0.882377
2004-11-22 09:42:19 51°10.308 2°35.865 14.741116 0.065448 0.40458 -0.882377
2004-11-22 09:42:24 51°10.327 2°35.876 14.744471 0.065448 0.404695 -0.916087
2004-11-22 09:42:28 51°10.341 2°35.891 14.745463 0.065448 0.404642 -0.916087
2004-11-22 09:42:34 51°10.363 2°35.904 14.747306 0.065448 0.404611 -0.882377
2004-11-22 09:42:38 51°10.377 2°35.917 14.747306 0.065448 0.404611 -0.882377
2004-11-22 09:42:43 51°10.395 2°35.931 14.754204 0.065448 0.404542 -0.882377
2004-11-22 09:42:49 51°10.417 2°35.95 14.756046 0.065448 0.404527 -0.916087
2004-11-22 09:42:54 51°10.436 2°35.963 14.759779 0.065448 0.404573 -0.882377
2004-11-22 09:42:59 51°10.454 2°35.978 14.76351 0.065448 0.404527 -0.882377
2004-11-22 09:43:03 51°10.469 2°35.987 14.772863 0.065448 0.404511 -0.882377
2004-11-22 09:43:07 51°10.482 2°36.003 14.772863 0.065448 0.404511 -0.882377
2004-11-22 09:43:14 51°10.508 2°36.021 14.768187 0.065448 0.404611 -0.882377
2004-11-22 09:43:17 51°10.517 2°36.033 14.800299 0.065448 0.404496 -0.882377
2004-11-22 09:43:25 51°10.548 2°36.054 14.787975 0.065448 0.404649 -0.882377
2004-11-22 09:43:32 51°10.573 2°36.077 14.820125 0.065448 0.404534 -0.882377
2004-11-22 09:43:36 51°10.588 2°36.088 14.806814 0.065448 0.404557 -0.882377
2004-11-22 09:43:40 51°10.602 2°36.102 14.805303 0.065448 0.404488 -0.882377
2004-11-22 09:43:46 51°10.622 2°36.122 14.810307 0.065448 0.404435 -0.882377
2004-11-22 09:43:52 51°10.643 2°36.14 14.825742 0.065448 0.404427 -0.916087
2004-11-22 09:43:56 51°10.657 2°36.156 14.825742 0.065448 0.404427 -0.916087
2004-11-22 09:44:02 51°10.679 2°36.173 14.806106 0.065448 0.404473 -0.882377
2004-11-22 09:44:07 51°10.697 2°36.191 14.838861 0.065448 0.404458 -0.882377
2004-11-22 09:44:12 51°10.715 2°36.207 14.823146 0.065448 0.404511 -0.882377
2004-11-22 09:44:17 51°10.733 2°36.223 14.821258 0.065448 0.404534 -0.882377
2004-11-22 09:44:22 51°10.752 2°36.239 14.830273 0.065448 0.404573 -0.916087
2004-11-22 09:44:26 51°10.766 2°36.252 14.830273 0.065448 0.404573 -0.916087
2004-11-22 09:44:32 51°10.787 2°36.273 14.847637 0.065448 0.404534 -0.916087
2004-11-22 09:44:36 51°10.802 2°36.287 14.829942 0.065448 0.40455 -0.882377
2004-11-22 09:44:42 51°10.823 2°36.306 14.830697 0.065448 0.404565 -0.882377
2004-11-22 09:44:47 51°10.839 2°36.327 14.846741 0.065448 0.404519 -0.882377
2004-11-22 09:44:52 51°10.857 2°36.342 14.85311 0.065448 0.404504 -0.916087
2004-11-22 09:44:57 51°10.873 2°36.362 14.85311 0.065448 0.404504 -0.916087
2004-11-22 09:45:02 51°10.891 2°36.378 14.832443 0.065448 0.404542 -0.882377
2004-11-22 09:45:06 51°10.905 2°36.392 14.868629 0.065448 0.404542 -0.882377
2004-11-22 09:45:12 51°10.927 2°36.411 14.853676 0.065448 0.404603 -0.882377
2004-11-22 09:45:17 51°10.945 2°36.428 14.87528 0.065448 0.404565 -0.916087
2004-11-22 09:45:22 51°10.962 2°36.446 14.856035 0.065448 0.40458 -0.916087
2004-11-22 09:45:27 51°10.98 2°36.462 14.856035 0.065448 0.40458 -0.916087
2004-11-22 09:45:30 51°10.989 2°36.476 14.881363 0.065448 0.404511 -0.882377
2004-11-22 09:45:36 51°11.01 2°36.495 14.854808 0.065448 0.404557 -0.882377
2004-11-22 09:45:42 51°11.029 2°36.52 14.868629 0.065448 0.404511 -0.916087
2004-11-22 09:45:46 51°11.044 2°36.531 14.866696 0.065448 0.404573 -0.916087
2004-11-22 09:45:52 51°11.064 2°36.552 14.881222 0.065448 0.404527 -0.882377
2004-11-22 09:45:55 51°11.074 2°36.564 14.881222 0.065448 0.404527 -0.882377
2004-11-22 09:46:02 51°11.098 2°36.587 14.870092 0.065448 0.404557 -0.882377
2004-11-22 09:46:12 51°11.133 2°36.622 14.882872 0.065448 0.404527 -0.882377
2004-11-22 09:46:19 51°11.158 2°36.644 14.87693 0.065448 0.404534 -0.916087
2004-11-22 09:46:24 51°11.175 2°36.662 14.914979 0.065448 0.404519 -0.882377
2004-11-22 09:46:29 51°11.193 2°36.678 14.890181 0.065448 0.404542 -0.916087
2004-11-22 09:46:34 51°11.21 2°36.696 14.919032 0.065448 0.404488 -0.916087
2004-11-22 09:46:38 51°11.223 2°36.713 14.919032 0.065448 0.404488 -0.916087
2004-11-22 09:46:42 51°11.238 2°36.722 14.885985 0.065448 0.404611 -0.882377
2004-11-22 09:46:52 51°11.272 2°36.759 14.90409 0.065448 0.404588 -0.882377
2004-11-22 09:46:58 51°11.291 2°36.784 14.912103 0.065448 0.404511 -0.916087
2004-11-22 09:47:04 51°11.312 2°36.803 14.918137 0.065448 0.404527 -0.916087
2004-11-22 09:47:09 51°11.329 2°36.822 14.918137 0.065448 0.404527 -0.916087
2004-11-22 09:47:14 51°11.347 2°36.836 14.911726 0.065448 0.404565 -0.848668
2004-11-22 09:47:18 51°11.361 2°36.851 14.933783 0.065448 0.404511 -0.916087
2004-11-22 09:47:29 51°11.4 2°36.888 14.93694 0.065448 0.404458 -0.882377
2004-11-22 09:47:39 51°11.434 2°36.924 14.932275 0.065448 0.40445 -0.916087
2004-11-22 09:47:44 51°11.451 2°36.94 14.924499 0.065448 0.404465 -0.882377
2004-11-22 09:47:46 51°11.457 2°36.948 14.925065 0.065448 0.404465 -0.882377
2004-11-22 09:47:54 51°11.485 2°36.974 14.932416 0.065448 0.404496 -0.882377
2004-11-22 09:47:59 51°11.502 2°36.993 14.938825 0.065448 0.404488 -0.882377
2004-11-22 09:48:04 51°11.52 2°37.009 14.946646 0.065448 0.404496 -0.882377
2004-11-22 09:48:08 51°11.533 2°37.025 14.946646 0.065448 0.404496 -0.882377
2004-11-22 09:48:12 51°11.548 2°37.035 14.939909 0.065448 0.404534 -0.882377
2004-11-22 09:48:18 51°11.569 2°37.056 14.953101 0.065448 0.404496 -0.882377
2004-11-22 09:48:24 51°11.59 2°37.074 14.960214 0.065448 0.404481 -0.916087
2004-11-22 09:48:29 51°11.607 2°37.093 14.951263 0.065448 0.404465 -0.848668
2004-11-22 09:48:34 51°11.625 2°37.109 14.966667 0.065448 0.40445 -0.882377
2004-11-22 09:48:39 51°11.642 2°37.127 14.966667 0.065448 0.40445 -0.882377
2004-11-22 09:48:44 51°11.659 2°37.143 14.944338 0.065448 0.404481 -0.882377
2004-11-22 09:48:48 51°11.673 2°37.155 14.960543 0.065448 0.404481 -0.882377
2004-11-22 09:48:52 51°11.688 2°37.169 14.970199 0.065448 0.404481 -0.882377
2004-11-22 09:48:58 51°11.708 2°37.188 14.966902 0.065448 0.404465 -0.916087
2004-11-22 09:49:02 51°11.721 2°37.204 14.964406 0.065448 0.404458 -0.916087
2004-11-22 09:49:09 51°11.745 2°37.228 14.964406 0.065448 0.404458 -0.916087
2004-11-22 09:49:14 51°11.762 2°37.244 14.969446 0.065448 0.404458 -0.882377
2004-11-22 09:49:18 51°11.777 2°37.255 14.973402 0.065448 0.404534 -0.882377
2004-11-22 09:49:22 51°11.789 2°37.27 14.981831 0.065448 0.404481 -0.882377
2004-11-22 09:49:34 51°11.83 2°37.311 14.975756 0.065448 0.404519 -0.916087
2004-11-22 09:49:39 51°11.847 2°37.328 14.975756 0.065448 0.404519 -0.916087
2004-11-22 09:49:44 51°11.863 2°37.346 14.987435 0.065448 0.404481 -0.882377
2004-11-22 09:49:49 51°11.88 2°37.364 14.983621 0.065448 0.404496 -0.882377
2004-11-22 09:49:54 51°11.898 2°37.38 14.987482 0.065448 0.404504 -0.916087
2004-11-22 09:49:58 51°11.911 2°37.396 14.995863 0.065552 0.405115 -0.882377
2004-11-22 09:50:04 51°11.932 2°37.416 14.9888 0.065448 0.404481 -0.882377
2004-11-22 09:50:08 51°11.947 2°37.428 14.9888 0.065448 0.404481 -0.882377
2004-11-22 09:50:14 51°11.968 2°37.448 15.0009 0.065448 0.40445 -0.882377
2004-11-22 09:50:19 51°11.986 2°37.463 14.99172 0.065552 0.405123 -0.916087
2004-11-22 09:50:24 51°12.003 2°37.48 14.998264 0.065448 0.40445 -0.882377
2004-11-22 09:50:29 51°12.021 2°37.497 15.007255 0.065448 0.40445 -0.882377
2004-11-22 09:50:34 51°12.038 2°37.515 14.999535 0.065448 0.404412 -0.916087
2004-11-22 09:50:39 51°12.054 2°37.533 14.999535 0.065448 0.404412 -0.916087
2004-11-22 09:50:44 51°12.072 2°37.549 14.996334 0.065448 0.40445 -0.916087
2004-11-22 09:50:49 51°12.089 2°37.568 15.002595 0.065552 0.4051 -0.882377
2004-11-22 09:50:54 51°12.107 2°37.585 14.998499 0.065448 0.404458 -0.882377
2004-11-22 09:50:59 51°12.124 2°37.602 15.016057 0.065552 0.4051 -0.882377
2004-11-22 09:51:04 51°12.141 2°37.619 15.017516 0.065448 0.404427 -0.916087
2004-11-22 09:51:08 51°12.155 2°37.634 15.017516 0.065448 0.404427 -0.916087
2004-11-22 09:51:14 51°12.177 2°37.653 15.008385 0.065448 0.404427 -0.882377
2004-11-22 09:51:19 51°12.194 2°37.672 15.028199 0.065448 0.404396 -0.882377
2004-11-22 09:51:24 51°12.213 2°37.687 15.017893 0.065552 0.405092 -0.916087
2004-11-22 09:51:29 51°12.23 2°37.704 15.034505 0.065448 0.404389 -0.916087
2004-11-22 09:51:34 51°12.247 2°37.723 15.020764 0.065448 0.404412 -0.916087
2004-11-22 09:51:38 51°12.262 2°37.736 15.020764 0.065448 0.404412 -0.916087
2004-11-22 09:51:44 51°12.282 2°37.758 15.027211 0.065448 0.404419 -0.882377
2004-11-22 09:51:49 51°12.3 2°37.775 15.028058 0.065552 0.405069 -0.882377
2004-11-22 09:51:54 51°12.316 2°37.795 15.03667 0.065552 0.405031 -0.882377
2004-11-22 09:51:59 51°12.334 2°37.811 15.032999 0.065552 0.405069 -0.882377
2004-11-22 09:52:04 51°12.349 2°37.831 15.031964 0.065552 0.405039 -0.848668
2004-11-22 09:52:09 51°12.367 2°37.848 15.031964 0.065552 0.405039 -0.848668
2004-11-22 09:52:11 51°12.374 2°37.856 15.03394 0.065448 0.404396 -0.916087
2004-11-22 09:52:19 51°12.402 2°37.882 15.03027 0.065552 0.4051 -0.916087
2004-11-22 09:52:22 51°12.412 2°37.894 15.057981 0.065448 0.404373 -0.916087
2004-11-22 09:52:29 51°12.437 2°37.917 15.039069 0.065552 0.4051 -0.882377
2004-11-22 09:52:34 51°12.454 2°37.936 15.047162 0.065552 0.405092 -0.916087
2004-11-22 09:52:39 51°12.472 2°37.95 15.047162 0.065552 0.405092 -0.916087
2004-11-22 09:52:44 51°12.489 2°37.97 15.066448 0.065448 0.404396 -0.882377
2004-11-22 09:52:48 51°12.504 2°37.981 15.03954 0.065552 0.405123 -0.882377
2004-11-22 09:52:51 51°12.515 2°37.99 15.060427 0.065448 0.404419 -0.882377
2004-11-22 09:52:57 51°12.536 2°38.011 15.06165 0.065448 0.404389 -0.916087
2004-11-22 09:53:01 51°12.55 2°38.025 15.059392 0.065552 0.405031 -0.916087
2004-11-22 09:53:14 51°12.594 2°38.069 15.065601 0.065448 0.40432 -0.882377
2004-11-22 09:53:28 51°12.642 2°38.115 15.065977 0.065448 0.40435 -0.916087
2004-11-22 09:53:34 51°12.663 2°38.134 15.060521 0.065552 0.405039 -0.882377
2004-11-22 09:53:40 51°12.683 2°38.154 15.078581 0.065552 0.404993 -0.848668
2004-11-22 09:53:44 51°12.696 2°38.166 15.078581 0.065552 0.404993 -0.848668
2004-11-22 09:53:50 51°12.716 2°38.187 15.076935 0.065552 0.405039 -0.916087
2004-11-22 09:53:54 51°12.73 2°38.2 15.075995 0.065552 0.405008 -0.882377
2004-11-22 09:53:59 51°12.747 2°38.218 15.082766 0.065552 0.405016 -0.882377
2004-11-22 09:54:04 51°12.764 2°38.235 15.075995 0.065552 0.405031 -0.882377
2004-11-22 09:54:10 51°12.785 2°38.256 15.084177 0.065552 0.404985 -0.882377
2004-11-22 09:54:14 51°12.799 2°38.268 15.084177 0.065552 0.404985 -0.882377
2004-11-22 09:54:20 51°12.82 2°38.289 15.085164 0.065448 0.40435 -0.882377
2004-11-22 09:54:25 51°12.837 2°38.308 15.08634 0.065448 0.40432 -0.916087
2004-11-22 09:54:30 51°12.855 2°38.322 15.083566 0.065448 0.404358 -0.882377
2004-11-22 09:54:35 51°12.872 2°38.34 15.087233 0.065552 0.404977 -0.916087
2004-11-22 09:54:38 51°12.883 2°38.35 15.086716 0.065552 0.405023 -0.882377
2004-11-22 09:54:44 51°12.905 2°38.369 15.086716 0.065552 0.405023 -0.882377
2004-11-22 09:54:50 51°12.926 2°38.39 15.092264 0.065552 0.404993 -0.882377
2004-11-22 09:54:54 51°12.94 2°38.403 15.090618 0.065552 0.404993 -0.882377
2004-11-22 09:54:58 51°12.954 2°38.417 15.10303 0.065552 0.404962 -0.882377
2004-11-22 09:55:04 51°12.974 2°38.439 15.097812 0.065552 0.404954 -0.882377
2004-11-22 09:55:10 51°12.994 2°38.464 15.096166 0.065552 0.404947 -0.916087
2004-11-22 09:55:14 51°13.009 2°38.475 15.096166 0.065552 0.404947 -0.916087
2004-11-22 09:55:18 51°13.022 2°38.493 15.108858 0.065448 0.404281 -0.882377
2004-11-22 09:55:24 51°13.043 2°38.511 15.098188 0.065552 0.405008 -0.882377
2004-11-22 09:55:30 51°13.065 2°38.53 15.101243 0.065552 0.405023 -0.916087
2004-11-22 09:55:32 51°13.072 2°38.536 15.118259 0.065552 0.404985 -0.882377
2004-11-22 09:55:40 51°13.099 2°38.565 15.101948 0.065552 0.405031 -0.916087
2004-11-22 09:55:44 51°13.114 2°38.574 15.101948 0.065552 0.405031 -0.916087
2004-11-22 09:55:50 51°13.135 2°38.593 15.117742 0.065552 0.405 -0.882377
2004-11-22 09:55:55 51°13.153 2°38.607 15.114969 0.065552 0.405 -0.882377
2004-11-22 09:56:00 51°13.171 2°38.622 15.118353 0.065552 0.404962 -0.916087
2004-11-22 09:56:02 51°13.178 2°38.629 15.112854 0.065552 0.404931 -0.882377
2004-11-22 09:56:08 51°13.2 2°38.644 15.125402 0.065448 0.404243 -0.882377
2004-11-22 09:56:14 51°13.221 2°38.664 15.125402 0.065448 0.404243 -0.882377
2004-11-22 09:56:20 51°13.244 2°38.678 15.115862 0.065552 0.404993 -0.882377
2004-11-22 09:56:24 51°13.258 2°38.691 15.131746 0.065552 0.404908 -0.882377
2004-11-22 09:56:28 51°13.274 2°38.697 15.122441 0.065552 0.405023 -0.916087
2004-11-22 09:56:35 51°13.299 2°38.718 15.136632 0.065552 0.40497 -0.882377
2004-11-22 09:56:40 51°13.318 2°38.729 15.132263 0.065448 0.40435 -0.916087
2004-11-22 09:56:45 51°13.335 2°38.743 15.132263 0.065448 0.40435 -0.916087
2004-11-22 09:56:47 51°13.343 2°38.747 15.128315 0.065552 0.404947 -0.916087
2004-11-22 09:56:54 51°13.368 2°38.765 15.131182 0.065552 0.404947 -0.882377
2004-11-22 09:57:00 51°13.389 2°38.782 15.148848 0.065448 0.404251 -0.882377
2004-11-22 09:57:03 51°13.401 2°38.787 15.137243 0.065552 0.404924 -0.882377
2004-11-22 09:57:10 51°13.426 2°38.805 15.155847 0.065552 0.404855 -0.882377
2004-11-22 09:57:15 51°13.446 2°38.814 15.155847 0.065552 0.404855 -0.882377
2004-11-22 09:57:20 51°13.464 2°38.826 15.142646 0.065448 0.404258 -0.916087
2004-11-22 09:57:25 51°13.482 2°38.838 15.149693 0.065448 0.404205 -0.882377
2004-11-22 09:57:28 51°13.494 2°38.845 15.145935 0.065552 0.404924 -0.916087
2004-11-22 09:57:38 51°13.532 2°38.867 15.154907 0.065552 0.404893 -0.916087
2004-11-22 09:57:42 51°13.546 2°38.877 15.155236 0.065552 0.404901 -0.916087
2004-11-22 09:57:48 51°13.569 2°38.889 15.161296 0.065552 0.404885 -0.916087
2004-11-22 09:57:52 51°13.584 2°38.898 15.150727 0.065552 0.404931 -0.882377
2004-11-22 09:57:57 51°13.604 2°38.906 15.170313 0.065552 0.404885 -0.916087
2004-11-22 09:58:03 51°13.627 2°38.918 15.170313 0.065552 0.404885 -0.916087
2004-11-22 09:58:08 51°13.646 2°38.922 15.151948 0.065552 0.404931 -0.882377
2004-11-22 09:58:12 51°13.662 2°38.927 15.161436 0.065552 0.404931 -0.882377
2004-11-22 09:58:16 51°13.677 2°38.925 15.159558 0.065552 0.404993 -0.916087
2004-11-22 09:58:37 51°13.757 2°38.919 15.172943 0.065552 0.404939 -0.916087
2004-11-22 09:58:43 51°13.78 2°38.916 15.179048 0.065552 0.404885 -0.882377
2004-11-22 09:58:47 51°13.796 2°38.914 15.174211 0.065552 0.404862 -0.882377
2004-11-22 09:58:51 51°13.811 2°38.91 15.178108 0.065552 0.404855 -0.882377
2004-11-22 09:58:58 51°13.838 2°38.906 15.177122 0.065552 0.404801 -0.882377
2004-11-22 09:59:03 51°13.857 2°38.9 15.177122 0.065552 0.404801 -0.882377
2004-11-22 09:59:05 51°13.864 2°38.901 15.185715 0.065552 0.404839 -0.882377
2004-11-22 09:59:16 51°13.906 2°38.889 15.189565 0.065552 0.404885 -0.882377